DH1GAP-13 Weather Reports


Display with metric or nautical units.
time (UTC)temp
F
wind
direction
speed
MPH
gust
MPH
rain 1hr
in
rain 24hr
in
rain mn
in
humidity
%
barometer
mb
20260507152809 66 337 3.0 0.0 0.00 0.04 0.00 53 1023.0
20260507152709 66 337 0.0 0.0 0.00 0.04 0.00 53 1023.0
20260507152609 66 22 0.0 0.0 0.00 0.04 0.00 53 1023.0
20260507152509 66 22 0.0 0.0 0.00 0.04 0.00 53 1023.2
20260507152409 66 22 0.0 0.0 0.00 0.04 0.00 53 1023.2
20260507152309 66 315 0.0 0.0 0.00 0.04 0.00 53 1023.0
20260507152209 65 337 0.0 0.0 0.00 0.04 0.00 53 1023.2
20260507152109 65 337 0.0 0.0 0.00 0.04 0.00 53 1023.0
20260507152009 65 292 0.0 0.0 0.00 0.04 0.00 53 1023.2
20260507151909 65 270 0.0 0.0 0.00 0.04 0.00 53 1023.2
20260507151809 65 270 0.0 0.0 0.00 0.04 0.00 53 1023.0
20260507151709 65 337 0.0 0.0 0.00 0.04 0.00 53 1023.0
20260507151609 65 270 0.0 0.0 0.00 0.04 0.00 53 1023.0
20260507151509 65 247 0.0 0.0 0.00 0.04 0.00 53 1023.2
20260507151409 65 292 0.0 0.0 0.00 0.04 0.00 53 1023.2
20260507151309 65 337 3.0 0.0 0.00 0.04 0.00 53 1023.0
20260507151209 65 337 0.0 0.0 0.00 0.04 0.00 53 1023.0
20260507151109 65 337 0.0 0.0 0.00 0.04 0.00 53 1023.0
20260507151009 65 315 0.0 0.0 0.00 0.04 0.00 53 1023.2
20260507150909 65 337 0.0 0.0 0.00 0.04 0.00 53 1023.0
20260507150809 65 315 7.0 0.0 0.00 0.04 0.00 53 1023.0
20260507150709 65 337 0.0 0.0 0.00 0.04 0.00 53 1023.0
20260507150609 65 337 1.0 0.0 0.00 0.04 0.00 53 1023.2
20260507150509 65 337 0.0 0.0 0.00 0.04 0.00 54 1023.2
20260507150409 65 0 0.0 0.0 0.00 0.04 0.00 54 1023.0
20260507150309 65 337 0.0 0.0 0.00 0.04 0.00 54 1023.0
20260507150209 65 337 0.0 0.0 0.00 0.04 0.00 54 1023.0
20260507150109 65 0 0.0 0.0 0.00 0.04 0.00 54 1023.0
20260507150009 65 0 0.0 0.0 0.00 0.06 0.00 54 1023.0
20260507145909 65 337 0.0 0.0 0.00 0.06 0.00 54 1023.0
20260507145809 65 337 0.0 0.0 0.00 0.06 0.00 54 1023.0
20260507145709 65 270 0.0 0.0 0.00 0.06 0.00 54 1023.0
20260507145609 65 315 0.0 0.0 0.00 0.06 0.00 54 1023.0
20260507145509 65 270 0.0 0.0 0.00 0.06 0.00 54 1023.0
20260507145409 64 315 7.0 0.0 0.00 0.06 0.00 54 1023.0
20260507145309 64 292 0.0 0.0 0.00 0.06 0.00 54 1023.0
20260507145209 64 315 0.0 0.0 0.00 0.06 0.00 54 1023.0
20260507145109 64 315 1.0 0.0 0.00 0.06 0.00 55 1023.0
20260507145009 64 292 0.0 0.0 0.00 0.06 0.00 55 1023.0
20260507144909 64 315 0.0 0.0 0.00 0.06 0.00 55 1023.0
20260507144809 64 315 0.0 0.0 0.00 0.06 0.00 55 1023.0
20260507144709 64 337 0.0 0.0 0.00 0.06 0.00 55 1023.0
20260507144609 64 315 0.0 0.0 0.00 0.06 0.00 55 1023.0
20260507144509 64 315 2.0 0.0 0.00 0.06 0.00 55 1023.0
20260507144409 64 337 5.0 0.0 0.00 0.06 0.00 55 1023.0
20260507144309 64 315 2.0 0.0 0.00 0.06 0.00 55 1023.0
20260507144209 64 292 0.0 0.0 0.00 0.06 0.00 56 1023.0
20260507144109 64 315 0.0 0.0 0.00 0.06 0.00 56 1023.0
20260507144009 64 315 0.0 0.0 0.00 0.06 0.00 56 1023.2
20260507143909 64 315 0.0 0.0 0.00 0.06 0.00 56 1023.2
20260507143809 64 292 0.0 0.0 0.00 0.06 0.00 56 1023.2
20260507143709 64 292 0.0 0.0 0.00 0.06 0.00 56 1023.2
20260507143609 64 270 0.0 0.0 0.00 0.06 0.00 56 1023.2
20260507143509 64 315 0.0 0.0 0.00 0.06 0.00 56 1023.2
20260507143409 64 270 0.0 0.0 0.00 0.06 0.00 56 1023.2
20260507143309 64 315 0.0 0.0 0.00 0.06 0.00 56 1023.2
20260507143209 64 270 0.0 0.0 0.00 0.06 0.00 56 1023.0
20260507143109 64 292 0.0 0.0 0.00 0.06 0.00 56 1023.0
20260507143009 64 315 0.0 0.0 0.00 0.06 0.00 56 1023.2
20260507142909 64 270 0.0 0.0 0.00 0.06 0.00 56 1023.2
20260507142809 64 270 0.0 0.0 0.00 0.06 0.00 57 1023.2
20260507142709 64 315 0.0 0.0 0.00 0.06 0.00 57 1023.2
20260507142609 64 0 0.0 0.0 0.00 0.06 0.00 57 1023.0
20260507142509 64 337 2.0 0.0 0.00 0.06 0.00 57 1023.0
20260507142409 64 22 0.0 0.0 0.00 0.06 0.00 57 1023.0
20260507142309 64 45 0.0 0.0 0.00 0.06 0.00 57 1023.2
20260507142209 64 22 0.0 0.0 0.00 0.06 0.00 58 1023.2
20260507142109 64 337 0.0 0.0 0.00 0.06 0.00 58 1023.2
20260507142009 64 315 0.0 0.0 0.00 0.06 0.00 58 1023.2
20260507141909 64 292 0.0 0.0 0.00 0.06 0.00 58 1023.2
20260507141809 64 315 0.0 0.0 0.00 0.06 0.00 58 1023.2
20260507141709 64 292 0.0 0.0 0.00 0.06 0.00 58 1023.0
20260507141609 63 292 0.0 0.0 0.00 0.06 0.00 58 1023.0
20260507141509 63 270 0.0 0.0 0.00 0.06 0.00 58 1023.0
20260507141409 63 315 2.0 0.0 0.00 0.06 0.00 59 1023.0
20260507141309 63 292 9.0 0.0 0.00 0.06 0.00 59 1023.0
20260507141209 62 270 0.0 0.0 0.00 0.06 0.00 59 1023.2
20260507141109 62 270 0.0 0.0 0.00 0.06 0.00 59 1023.0
20260507141009 62 270 0.0 0.0 0.00 0.06 0.00 59 1023.0
20260507140909 62 270 0.0 0.0 0.00 0.06 0.00 59 1023.2
20260507140809 62 270 0.0 0.0 0.00 0.06 0.00 59 1023.2
20260507140710 62 270 0.0 0.0 0.00 0.06 0.00 59 1023.2
20260507140609 62 315 0.0 0.0 0.00 0.06 0.00 59 1023.2
20260507140509 62 270 0.0 0.0 0.00 0.06 0.00 59 1023.2
20260507140409 62 270 0.0 0.0 0.00 0.06 0.00 59 1023.2
20260507140309 61 315 2.0 0.0 0.00 0.06 0.00 59 1023.2
20260507140209 61 270 0.0 0.0 0.00 0.06 0.00 59 1023.2
20260507140109 61 315 2.0 0.0 0.00 0.06 0.00 59 1023.2
20260507140009 61 315 0.0 0.0 0.00 0.06 0.00 59 1023.2
20260507135909 61 315 0.0 0.0 0.00 0.14 0.00 59 1023.2
20260507135809 61 315 2.0 0.0 0.00 0.14 0.00 59 1023.2
20260507135709 61 315 2.0 0.0 0.00 0.14 0.00 59 1023.2
20260507135609 61 337 0.0 0.0 0.00 0.14 0.00 59 1023.2
20260507135509 61 315 7.0 0.0 0.00 0.14 0.00 59 1023.2
20260507135409 61 337 2.0 0.0 0.00 0.14 0.00 59 1023.2
20260507135309 61 315 10.0 0.0 0.00 0.14 0.00 59 1023.2
20260507135209 61 315 1.0 0.0 0.00 0.14 0.00 59 1023.2
20260507135109 61 315 0.0 0.0 0.00 0.14 0.00 59 1023.2
20260507135009 61 337 0.0 0.0 0.00 0.14 0.00 59 1023.4
20260507134909 61 337 4.0 0.0 0.00 0.14 0.00 59 1023.4
20260507134809 61 315 0.0 0.0 0.00 0.14 0.00 59 1023.4
20260507134709 61 337 0.0 0.0 0.00 0.14 0.00 59 1023.2
20260507134609 61 315 0.0 0.0 0.00 0.14 0.00 59 1023.5
20260507134509 61 270 0.0 0.0 0.00 0.14 0.00 59 1023.5
20260507134409 61 270 0.0 0.0 0.00 0.14 0.00 59 1023.4
20260507134309 61 315 0.0 0.0 0.00 0.14 0.00 59 1023.4
20260507134209 61 22 0.0 0.0 0.00 0.14 0.00 59 1023.4
20260507134109 61 22 0.0 0.0 0.00 0.14 0.00 59 1023.4
20260507134009 61 45 0.0 0.0 0.00 0.14 0.00 59 1023.4
20260507133909 61 337 0.0 0.0 0.00 0.14 0.00 59 1023.4
20260507133809 61 22 0.0 0.0 0.00 0.14 0.00 59 1023.4
20260507133709 61 45 0.0 0.0 0.00 0.14 0.00 59 1023.5
20260507133609 61 292 183.0 0.0 0.00 0.14 0.00 59 1023.5
20260507133509 61 292 0.0 0.0 0.00 0.14 0.00 59 1023.5
20260507133409 61 315 0.0 0.0 0.00 0.14 0.00 59 1023.5
20260507133309 61 337 0.0 0.0 0.00 0.14 0.00 59 1023.5
20260507133209 61 315 6.0 0.0 0.00 0.14 0.00 59 1023.7
20260507133109 61 315 10.0 0.0 0.00 0.14 0.00 59 1023.5
20260507133009 61 315 3.0 0.0 0.00 0.14 0.00 59 1023.7
20260507132909 61 315 3.0 0.0 0.00 0.14 0.00 59 1023.7
20260507132809 61 315 8.0 0.0 0.00 0.14 0.00 59 1023.7
20260507132710 61 337 4.0 0.0 0.00 0.14 0.00 59 1023.7
20260507132609 61 315 3.0 0.0 0.00 0.14 0.00 59 1023.5
20260507132509 62 315 0.0 0.0 0.00 0.14 0.00 59 1023.7
20260507132409 62 292 0.0 0.0 0.00 0.14 0.00 59 1023.5
20260507132309 62 292 0.0 0.0 0.00 0.14 0.00 59 1023.7
20260507132209 62 270 0.0 0.0 0.00 0.14 0.00 59 1023.7
20260507132109 62 292 9.0 0.0 0.00 0.14 0.00 59 1023.7
20260507132009 62 315 11.0 0.0 0.00 0.14 0.00 59 1023.5
20260507131909 62 337 0.0 0.0 0.00 0.14 0.00 59 1023.5
20260507131809 62 337 0.0 0.0 0.00 0.14 0.00 59 1023.7
20260507131709 62 0 2.0 0.0 0.00 0.14 0.00 60 1023.7
20260507131609 62 0 5.0 0.0 0.00 0.14 0.00 60 1023.7
20260507131509 62 315 0.0 0.0 0.00 0.14 0.00 60 1023.7
20260507131409 62 292 0.0 0.0 0.00 0.14 0.00 60 1023.7
20260507131309 62 315 5.0 0.0 0.00 0.14 0.00 60 1023.5
20260507131209 62 315 6.0 0.0 0.00 0.14 0.00 60 1023.7
20260507131109 62 315 5.0 0.0 0.00 0.14 0.00 60 1023.5
20260507131009 62 337 5.0 0.0 0.00 0.14 0.00 61 1023.5
20260507130909 62 315 15.0 0.0 0.00 0.14 0.00 61 1023.5
20260507130809 62 270 0.0 0.0 0.00 0.14 0.00 61 1023.5
20260507130709 62 292 0.0 0.0 0.00 0.14 0.00 61 1023.5
20260507130609 61 315 0.0 0.0 0.00 0.14 0.00 61 1023.7
20260507130509 61 315 0.0 0.0 0.00 0.14 0.00 61 1023.7
20260507130409 61 315 10.0 0.0 0.00 0.14 0.00 61 1023.5
20260507130309 61 270 0.0 0.0 0.00 0.14 0.00 61 1023.7
20260507130209 61 315 0.0 0.0 0.00 0.14 0.00 61 1023.5
20260507130109 61 315 4.0 0.0 0.00 0.14 0.00 61 1023.7
20260507130009 61 270 0.0 0.0 0.00 0.14 0.00 61 1023.7
20260507125909 61 315 10.0 0.0 0.00 0.14 0.00 61 1023.5
20260507125809 61 337 6.0 0.0 0.00 0.14 0.00 61 1023.7
20260507125709 61 337 13.0 0.0 0.00 0.14 0.00 61 1023.7
20260507125609 61 337 12.0 0.0 0.00 0.14 0.00 61 1023.5
20260507125509 60 22 8.0 0.0 0.00 0.14 0.00 61 1023.7
20260507125409 60 315 10.0 0.0 0.00 0.14 0.00 61 1023.7
20260507125309 60 337 15.0 0.0 0.00 0.14 0.00 61 1023.7
20260507125209 60 315 11.0 0.0 0.00 0.14 0.00 60 1023.7
20260507125109 60 337 11.0 0.0 0.00 0.14 0.00 60 1023.7
20260507125011 60 337 9.0 0.0 0.00 0.14 0.00 60 1023.7
20260507124909 60 315 10.0 0.0 0.00 0.14 0.00 60 1023.7
20260507124809 60 315 12.0 0.0 0.00 0.14 0.00 60 1023.7
20260507124709 60 315 11.0 0.0 0.00 0.14 0.00 60 1023.7
20260507124609 60 315 0.0 0.0 0.00 0.14 0.00 60 1023.7
20260507124509 60 315 9.0 0.0 0.00 0.14 0.00 60 1023.7
20260507124409 60 337 15.0 0.0 0.00 0.14 0.00 60 1023.7
20260507124309 60 315 12.0 0.0 0.00 0.14 0.00 60 1023.7
20260507124209 60 315 11.0 0.0 0.00 0.14 0.00 60 1023.7
20260507124109 60 337 6.0 0.0 0.00 0.14 0.00 60 1023.5
20260507124009 61 315 16.0 0.0 0.00 0.14 0.00 60 1023.5
20260507123909 61 337 7.0 0.0 0.00 0.14 0.00 60 1023.5
20260507123809 61 337 13.0 0.0 0.00 0.14 0.00 60 1023.5
20260507123709 61 292 0.0 0.0 0.00 0.14 0.00 60 1023.5
20260507123609 61 315 11.0 0.0 0.00 0.14 0.00 60 1023.5
20260507123509 61 270 5.0 0.0 0.00 0.14 0.00 60 1023.4
20260507123409 61 315 5.0 0.0 0.00 0.14 0.00 59 1023.4
20260507123309 61 337 14.0 0.0 0.00 0.14 0.00 59 1023.4
20260507123209 61 315 4.0 0.0 0.00 0.14 0.00 58 1023.4
20260507123109 61 315 4.0 0.0 0.00 0.14 0.00 58 1023.4
20260507123009 62 0 0.0 0.0 0.00 0.14 0.00 58 1023.4
20260507122909 62 315 10.0 0.0 0.00 0.14 0.00 58 1023.4
20260507122809 62 315 16.0 0.0 0.00 0.14 0.00 57 1023.4
20260507122709 62 315 4.0 0.0 0.00 0.14 0.00 57 1023.4
20260507122609 62 315 15.0 0.0 0.00 0.14 0.00 57 1023.5
20260507122509 62 337 16.0 0.0 0.00 0.14 0.00 57 1023.5
20260507122409 62 337 12.0 0.0 0.00 0.14 0.00 56 1023.4
20260507122309 63 337 12.0 0.0 0.00 0.14 0.00 56 1023.5
20260507122209 63 315 6.0 0.0 0.00 0.14 0.00 56 1023.5
20260507122109 63 315 6.0 0.0 0.00 0.14 0.00 56 1023.4
20260507122009 64 315 14.0 0.0 0.00 0.14 0.00 55 1023.5
20260507121909 64 315 14.0 0.0 0.00 0.14 0.00 55 1023.5
20260507121809 64 315 0.0 0.0 0.00 0.14 0.00 54 1023.5
20260507121709 64 315 0.0 0.0 0.00 0.14 0.00 54 1023.4
20260507121609 65 315 8.0 0.0 0.00 0.14 0.00 53 1023.4
20260507121509 66 337 9.0 0.0 0.00 0.14 0.00 53 1023.4
20260507121409 66 315 8.0 0.0 0.00 0.14 0.00 53 1023.4
20260507121309 67 315 2.0 0.0 0.00 0.14 0.00 52 1023.4
20260507121209 67 292 10.0 0.0 0.00 0.14 0.00 52 1023.4
20260507121109 68 292 9.0 0.0 0.00 0.14 0.00 51 1023.4
20260507121009 68 292 0.0 0.0 0.00 0.14 0.00 51 1023.4
20260507120909 68 270 3.0 0.0 0.00 0.14 0.00 51 1023.4
20260507120809 69 292 0.0 0.0 0.00 0.14 0.00 50 1023.4
20260507120709 69 315 4.0 0.0 0.00 0.14 0.00 51 1023.4
20260507120609 70 292 6.0 0.0 0.00 0.14 0.00 50 1023.2
20260507120509 70 292 0.0 0.0 0.00 0.14 0.00 50 1023.2
20260507120409 70 270 0.0 0.0 0.00 0.14 0.00 50 1023.4
20260507120309 71 270 10.0 0.0 0.00 0.14 0.00 50 1023.2
20260507120209 71 315 6.0 0.0 0.00 0.14 0.00 51 1023.4
20260507120109 71 225 3.0 0.0 0.00 0.14 0.00 51 1023.2
20260507120009 71 225 5.0 0.0 0.00 0.14 0.00 51 1023.2
20260507115909 71 225 3.0 0.0 0.00 0.14 0.00 51 1023.2
20260507115809 71 225 14.0 0.0 0.00 0.14 0.00 51 1023.2
20260507115709 71 247 0.0 0.0 0.00 0.14 0.00 51 1023.2
20260507115609 72 247 0.0 0.0 0.00 0.14 0.00 51 1023.2
20260507115509 72 247 0.0 0.0 0.00 0.14 0.00 51 1023.2
20260507115409 72 247 0.0 0.0 0.00 0.14 0.00 51 1023.2
20260507115309 71 180 0.0 0.0 0.00 0.14 0.00 51 1023.2
20260507115209 71 180 6.0 0.0 0.00 0.14 0.00 51 1023.2
20260507115109 71 202 6.0 0.0 0.00 0.14 0.00 51 1023.2
20260507115009 71 180 0.0 0.0 0.00 0.14 0.00 51 1023.2
20260507114909 71 180 7.0 0.0 0.00 0.14 0.00 51 1023.2
20260507114809 71 180 0.0 0.0 0.00 0.14 0.00 51 1023.4
20260507114709 71 180 0.0 0.0 0.00 0.14 0.00 52 1023.4
20260507114609 71 180 0.0 0.0 0.00 0.14 0.00 52 1023.4
20260507114509 71 202 7.0 0.0 0.00 0.14 0.00 52 1023.4
20260507114409 71 225 8.0 0.0 0.00 0.14 0.00 52 1023.4
20260507114309 70 225 4.0 0.0 0.00 0.14 0.00 52 1023.2
20260507114209 70 202 4.0 0.0 0.00 0.14 0.00 52 1023.4
20260507114109 70 202 0.0 0.0 0.00 0.14 0.00 52 1023.4
20260507114009 70 202 0.0 0.0 0.00 0.14 0.00 52 1023.4
20260507113909 70 202 5.0 0.0 0.00 0.14 0.00 52 1023.5
20260507113809 70 180 0.0 0.0 0.00 0.14 0.00 52 1023.4
20260507113709 70 202 0.0 0.0 0.00 0.14 0.00 52 1023.4
20260507113609 70 202 9.0 0.0 0.00 0.14 0.00 53 1023.4
20260507113509 70 180 0.0 0.0 0.00 0.14 0.00 53 1023.5
20260507113409 70 202 2.0 0.0 0.00 0.14 0.00 53 1023.4
20260507113309 70 225 0.0 0.0 0.00 0.14 0.00 53 1023.4
20260507113209 69 225 7.0 0.0 0.00 0.14 0.00 53 1023.5
20260507113109 69 225 4.0 0.0 0.00 0.14 0.00 53 1023.4
20260507113009 69 247 0.0 0.0 0.00 0.14 0.00 53 1023.4
20260507112909 69 247 0.0 0.0 0.00 0.14 0.00 53 1023.4
20260507112809 69 247 0.0 0.0 0.00 0.14 0.00 53 1023.5
20260507112709 69 247 0.0 0.0 0.00 0.14 0.00 53 1023.5
20260507112609 69 202 9.0 0.0 0.00 0.14 0.00 53 1023.5
20260507112509 69 180 0.0 0.0 0.00 0.14 0.00 53 1023.5
20260507112409 69 247 0.0 0.0 0.00 0.14 0.00 54 1023.5
20260507112309 69 202 0.0 0.0 0.00 0.14 0.00 54 1023.4
20260507112209 69 225 11.0 0.0 0.00 0.14 0.00 54 1023.4
20260507112109 69 202 12.0 0.0 0.00 0.14 0.00 53 1023.4
20260507112009 69 202 8.0 0.0 0.00 0.14 0.00 54 1023.4
20260507111909 69 202 3.0 0.0 0.00 0.14 0.00 54 1023.4
20260507111809 69 180 0.0 0.0 0.00 0.14 0.00 54 1023.4
20260507111709 69 157 2.0 0.0 0.00 0.14 0.00 54 1023.4
20260507111609 69 225 6.0 0.0 0.00 0.14 0.00 54 1023.5
20260507111509 69 180 0.0 0.0 0.00 0.14 0.00 54 1023.5
20260507111409 69 157 1.0 0.0 0.00 0.14 0.00 54 1023.4
20260507111309 68 180 0.0 0.0 0.00 0.14 0.00 54 1023.4
20260507111209 68 202 7.0 0.0 0.00 0.14 0.00 54 1023.5
20260507111109 68 180 9.0 0.0 0.00 0.14 0.00 54 1023.7
20260507111009 68 180 12.0 0.0 0.00 0.14 0.00 54 1023.5
20260507110909 68 292 183.0 0.0 0.00 0.14 0.00 54 1023.5
20260507110809 68 225 11.0 0.0 0.00 0.14 0.00 54 1023.4
20260507110709 68 202 6.0 0.0 0.00 0.14 0.00 54 1023.5
20260507110609 67 202 12.0 0.0 0.00 0.14 0.00 54 1023.5
20260507110509 67 180 0.0 0.0 0.00 0.14 0.00 54 1023.5
20260507110409 67 225 0.0 0.0 0.00 0.14 0.00 54 1023.5
20260507110309 67 202 0.0 0.0 0.00 0.14 0.00 54 1023.5
20260507110209 67 180 6.0 0.0 0.00 0.14 0.00 54 1023.5
20260507110109 67 202 4.0 0.0 0.00 0.14 0.00 54 1023.4
20260507110009 68 202 8.0 0.0 0.00 0.14 0.00 54 1023.5
20260507105909 68 202 17.0 0.0 0.00 0.14 0.00 54 1023.5
20260507105809 68 157 4.0 0.0 0.00 0.14 0.00 54 1023.5
20260507105709 68 202 2.0 0.0 0.00 0.14 0.00 55 1023.5
20260507105609 68 202 14.0 0.0 0.00 0.14 0.00 55 1023.5
20260507105509 68 202 9.0 0.0 0.00 0.14 0.00 55 1023.5
20260507105409 68 202 8.0 0.0 0.00 0.14 0.00 55 1023.5
20260507105309 68 225 8.0 0.0 0.00 0.14 0.00 55 1023.5
20260507105209 68 180 9.0 0.0 0.00 0.14 0.00 55 1023.5
20260507105109 68 180 12.0 0.0 0.00 0.14 0.00 55 1023.5
20260507105009 68 225 9.0 0.0 0.00 0.14 0.00 55 1023.5
20260507104909 68 157 7.0 0.0 0.00 0.14 0.00 55 1023.5
20260507104809 67 202 7.0 0.0 0.00 0.14 0.00 55 1023.5
20260507104709 67 180 5.0 0.0 0.00 0.14 0.00 55 1023.5
20260507104609 67 180 2.0 0.0 0.00 0.14 0.00 55 1023.5
20260507104509 67 157 13.0 0.0 0.00 0.14 0.00 56 1023.5
20260507104409 67 180 0.0 0.0 0.00 0.14 0.00 55 1023.5
20260507104309 67 157 0.0 0.0 0.00 0.14 0.00 55 1023.5
20260507104209 67 180 3.0 0.0 0.00 0.14 0.00 55 1023.5
20260507104109 67 180 0.0 0.0 0.00 0.14 0.00 55 1023.5
20260507104009 67 202 11.0 0.0 0.00 0.14 0.00 55 1023.5
20260507103909 67 202 10.0 0.0 0.00 0.14 0.00 55 1023.5
20260507103809 67 180 10.0 0.0 0.00 0.14 0.00 55 1023.5
20260507103709 67 202 13.0 0.0 0.00 0.14 0.00 55 1023.5
20260507103609 67 157 9.0 0.0 0.00 0.14 0.00 55 1023.5
20260507103509 67 180 0.0 0.0 0.00 0.14 0.00 55 1023.5
20260507103409 67 202 1.0 0.0 0.00 0.14 0.00 55 1023.5
20260507103309 68 180 10.0 0.0 0.00 0.14 0.00 55 1023.5
20260507103209 68 202 6.0 0.0 0.00 0.14 0.00 55 1023.5
20260507103109 68 202 13.0 0.0 0.00 0.14 0.00 55 1023.5
20260507103009 68 180 4.0 0.0 0.00 0.14 0.00 55 1023.5
20260507102909 68 202 13.0 0.0 0.00 0.14 0.00 55 1023.5
20260507102809 68 180 2.0 0.0 0.00 0.14 0.00 55 1023.5
20260507102709 69 180 0.0 0.0 0.00 0.14 0.00 55 1023.5
20260507102609 69 180 10.0 0.0 0.00 0.14 0.00 55 1023.5
20260507102509 69 180 2.0 0.0 0.00 0.14 0.00 55 1023.4
20260507102409 69 202 13.0 0.0 0.00 0.14 0.00 56 1023.5
20260507102309 69 180 3.0 0.0 0.00 0.14 0.00 55 1023.5
20260507102209 69 225 6.0 0.0 0.00 0.14 0.00 56 1023.5
20260507102109 69 180 5.0 0.0 0.00 0.14 0.00 55 1023.5
20260507102009 69 180 13.0 0.0 0.00 0.14 0.00 55 1023.5
20260507101909 69 202 10.0 0.0 0.00 0.14 0.00 56 1023.5
20260507101809 69 157 10.0 0.0 0.00 0.14 0.00 56 1023.5
20260507101709 69 180 6.0 0.0 0.00 0.14 0.00 56 1023.5
20260507101609 69 157 14.0 0.0 0.00 0.14 0.00 56 1023.5
20260507101509 69 180 10.0 0.0 0.00 0.14 0.00 56 1023.5
20260507101409 69 157 10.0 0.0 0.00 0.14 0.00 57 1023.5
20260507101309 69 180 11.0 0.0 0.00 0.14 0.00 57 1023.5
20260507101209 69 225 0.0 0.0 0.00 0.14 0.00 57 1023.5
20260507101109 69 247 10.0 0.0 0.00 0.14 0.00 57 1023.5
20260507101009 69 202 18.0 0.0 0.00 0.14 0.00 57 1023.5
20260507100909 69 225 14.0 0.0 0.00 0.14 0.00 57 1023.5
20260507100809 68 225 12.0 0.0 0.00 0.14 0.00 57 1023.5
20260507100709 68 180 0.0 0.0 0.00 0.14 0.00 58 1023.5
20260507100609 68 157 8.0 0.0 0.00 0.14 0.00 58 1023.5
20260507100509 68 202 11.0 0.0 0.00 0.14 0.00 58 1023.5
20260507100409 68 157 3.0 0.0 0.00 0.14 0.00 58 1023.5
20260507100309 67 180 0.0 0.0 0.00 0.14 0.00 58 1023.5
20260507100209 67 180 0.0 0.0 0.00 0.14 0.00 58 1023.5
20260507100109 67 202 10.0 0.0 0.00 0.14 0.00 58 1023.4
20260507100009 67 202 13.0 0.0 0.00 0.14 0.00 58 1023.5
20260507095909 67 247 11.0 0.0 0.00 0.14 0.00 58 1023.5
20260507095809 67 202 18.0 0.0 0.00 0.14 0.00 58 1023.5
20260507095709 67 225 10.0 0.0 0.00 0.14 0.00 59 1023.5
20260507095609 67 225 5.0 0.0 0.00 0.14 0.00 58 1023.5
20260507095509 66 180 6.0 0.0 0.00 0.14 0.00 59 1023.5
20260507095409 67 180 6.0 0.0 0.00 0.14 0.00 59 1023.7
20260507095308 67 225 11.0 0.0 0.00 0.14 0.00 59 1023.5
20260507095209 67 225 10.0 0.0 0.00 0.14 0.00 59 1023.7
20260507095109 67 202 0.0 0.0 0.00 0.14 0.00 59 1023.7
20260507095009 67 225 6.0 0.0 0.00 0.14 0.00 59 1023.7
20260507094909 67 225 10.0 0.0 0.00 0.14 0.00 59 1023.5
20260507094809 67 202 17.0 0.0 0.00 0.14 0.00 59 1023.7
20260507094709 67 202 8.0 0.0 0.00 0.14 0.00 59 1023.7
20260507094609 67 225 18.0 0.0 0.00 0.14 0.00 59 1023.5
20260507094508 68 202 6.0 0.0 0.00 0.14 0.00 59 1023.7
20260507094408 68 202 0.0 0.0 0.00 0.14 0.00 59 1023.5
20260507094308 68 180 0.0 0.0 0.00 0.14 0.00 59 1023.5
20260507094208 68 202 11.0 0.0 0.00 0.14 0.00 59 1023.5
20260507094108 68 180 9.0 0.0 0.00 0.14 0.00 59 1023.5
20260507094009 68 202 5.0 0.0 0.00 0.14 0.00 59 1023.5
20260507093908 68 202 2.0 0.0 0.00 0.14 0.00 59 1023.5
20260507093809 68 180 0.0 0.0 0.00 0.14 0.00 60 1023.7
20260507093708 68 157 3.0 0.0 0.00 0.14 0.00 60 1023.5
20260507093608 68 157 9.0 0.0 0.00 0.14 0.00 60 1023.5
20260507093508 68 180 12.0 0.0 0.00 0.14 0.00 60 1023.5
20260507093408 68 157 9.0 0.0 0.00 0.14 0.00 60 1023.5
20260507093308 68 180 4.0 0.0 0.00 0.14 0.00 60 1023.5
20260507093209 68 157 0.0 0.0 0.00 0.14 0.00 60 1023.5
20260507093108 68 180 0.0 0.0 0.00 0.14 0.00 60 1023.5
20260507093008 68 180 7.0 0.0 0.00 0.14 0.00 60 1023.5
20260507092908 68 180 11.0 0.0 0.00 0.14 0.00 60 1023.4
20260507092808 68 157 2.0 0.0 0.00 0.14 0.00 60 1023.4
20260507092708 68 135 6.0 0.0 0.00 0.14 0.00 60 1023.4
20260507092608 68 180 9.0 0.0 0.00 0.14 0.00 60 1023.4
20260507092508 68 180 9.0 0.0 0.00 0.14 0.00 60 1023.4
20260507092408 68 157 4.0 0.0 0.00 0.14 0.00 60 1023.4
20260507092308 68 180 9.0 0.0 0.00 0.14 0.00 60 1023.4
20260507092208 68 202 5.0 0.0 0.00 0.14 0.00 60 1023.2
20260507092108 68 180 9.0 0.0 0.00 0.14 0.00 60 1023.4
20260507092008 68 135 6.0 0.0 0.00 0.14 0.00 60 1023.4
20260507091909 69 180 10.0 0.0 0.00 0.14 0.00 60 1023.2
20260507091808 69 157 4.0 0.0 0.00 0.14 0.00 60 1023.4
20260507091708 69 180 12.0 0.0 0.00 0.14 0.00 60 1023.2
20260507091608 69 180 6.0 0.0 0.00 0.14 0.00 60 1023.4
20260507091508 69 180 5.0 0.0 0.00 0.14 0.00 61 1023.4
20260507091408 69 180 10.0 0.0 0.00 0.14 0.00 61 1023.4
20260507091308 69 202 10.0 0.0 0.00 0.14 0.00 61 1023.4
20260507091208 69 225 9.0 0.0 0.00 0.14 0.00 61 1023.4
20260507091108 69 225 15.0 0.0 0.00 0.14 0.00 61 1023.2
20260507091008 69 202 19.0 0.0 0.00 0.14 0.00 62 1023.2
20260507090908 69 180 10.0 0.0 0.00 0.14 0.00 62 1023.2
20260507090809 69 202 12.0 0.0 0.00 0.14 0.00 62 1023.2
20260507090708 69 180 12.0 0.0 0.00 0.14 0.00 63 1023.4
20260507090608 69 202 4.0 0.0 0.00 0.14 0.00 63 1023.4
20260507090508 69 180 1.0 0.0 0.00 0.14 0.00 63 1023.2
20260507090408 69 202 7.0 0.0 0.00 0.14 0.00 63 1023.2
20260507090308 69 180 0.0 0.0 0.00 0.14 0.00 64 1023.4
20260507090208 69 202 16.0 0.0 0.00 0.14 0.00 64 1023.2
20260507090108 69 225 7.0 0.0 0.00 0.14 0.00 64 1023.2
20260507090008 69 180 0.0 0.0 0.00 0.14 0.00 64 1023.2
20260507085908 69 180 0.0 0.0 0.00 0.14 0.00 64 1023.4
20260507085808 68 225 5.0 0.0 0.00 0.14 0.00 65 1023.4
20260507085708 68 180 0.0 0.0 0.00 0.14 0.00 64 1023.2
20260507085608 68 202 6.0 0.0 0.00 0.14 0.00 65 1023.4
20260507085508 68 180 0.0 0.0 0.00 0.14 0.00 65 1023.2
20260507085408 67 180 2.0 0.0 0.00 0.14 0.00 65 1023.2
20260507085308 67 180 5.0 0.0 0.00 0.14 0.00 65 1023.2
20260507085208 67 180 9.0 0.0 0.00 0.14 0.00 65 1023.4
20260507085108 67 180 0.0 0.0 0.00 0.14 0.00 65 1023.4
20260507085008 66 180 0.0 0.0 0.00 0.14 0.00 66 1023.4
20260507084908 66 202 3.0 0.0 0.00 0.14 0.00 66 1023.4
20260507084808 66 202 0.0 0.0 0.00 0.14 0.00 66 1023.4
20260507084708 66 225 9.0 0.0 0.00 0.14 0.00 66 1023.4
20260507084608 66 225 15.0 0.0 0.00 0.14 0.00 66 1023.4
20260507084508 66 202 16.0 0.0 0.00 0.14 0.00 66 1023.4
20260507084408 65 180 2.0 0.0 0.00 0.14 0.00 66 1023.5
20260507084308 65 157 7.0 0.0 0.00 0.14 0.00 66 1023.4
20260507084208 65 157 6.0 0.0 0.00 0.14 0.00 66 1023.0
20260507084108 65 180 0.0 0.0 0.00 0.14 0.00 66 1023.2
20260507084008 65 157 5.0 0.0 0.00 0.14 0.00 66 1023.4
20260507083908 65 157 3.0 0.0 0.00 0.14 0.00 66 1023.2
20260507083808 65 157 0.0 0.0 0.00 0.14 0.00 66 1023.2
20260507083708 65 180 6.0 0.0 0.00 0.14 0.00 66 1023.2
20260507083608 65 180 6.0 0.0 0.00 0.14 0.00 67 1023.2
20260507083508 65 180 0.0 0.0 0.00 0.14 0.00 67 1023.2
20260507083408 65 180 9.0 0.0 0.00 0.14 0.00 67 1023.2
20260507083308 65 180 11.0 0.0 0.00 0.14 0.00 67 1023.2
20260507083208 65 202 8.0 0.0 0.00 0.14 0.00 67 1023.2
20260507083108 65 202 11.0 0.0 0.00 0.14 0.00 67 1023.2
20260507083008 65 225 3.0 0.0 0.00 0.14 0.00 67 1023.2
20260507082908 65 180 10.0 0.0 0.00 0.14 0.00 67 1023.2
20260507082808 65 202 0.0 0.0 0.00 0.14 0.00 68 1023.0
20260507082708 65 225 13.0 0.0 0.00 0.14 0.00 68 1023.2
20260507082608 65 225 8.0 0.0 0.00 0.14 0.00 68 1023.2
20260507082508 65 180 0.0 0.0 0.00 0.14 0.00 68 1023.2
20260507082408 65 180 5.0 0.0 0.00 0.14 0.00 68 1023.2
20260507082308 65 180 8.0 0.0 0.00 0.14 0.00 68 1023.2
20260507082208 65 202 14.0 0.0 0.00 0.14 0.00 69 1023.2
20260507082108 65 225 9.0 0.0 0.00 0.14 0.00 69 1023.0
20260507082008 65 225 14.0 0.0 0.00 0.14 0.00 69 1023.2
20260507081908 65 202 2.0 0.0 0.00 0.14 0.00 69 1023.2
20260507081808 65 180 0.0 0.0 0.00 0.14 0.00 69 1023.2
20260507081708 65 157 0.0 0.0 0.00 0.14 0.00 70 1023.2
20260507081608 65 202 10.0 0.0 0.00 0.14 0.00 70 1023.2
20260507081508 65 157 4.0 0.0 0.00 0.14 0.00 70 1023.2
20260507081408 65 157 5.0 0.0 0.00 0.14 0.00 70 1023.2
20260507081308 64 180 9.0 0.0 0.00 0.14 0.00 70 1023.2
20260507081208 64 180 9.0 0.0 0.00 0.14 0.00 70 1023.2
20260507081108 64 157 7.0 0.0 0.00 0.14 0.00 70 1023.2
20260507081008 64 180 4.0 0.0 0.00 0.14 0.00 70 1023.2
20260507080908 64 157 3.0 0.0 0.00 0.14 0.00 70 1023.2
20260507080808 64 157 1.0 0.0 0.00 0.14 0.00 71 1023.2
20260507080708 64 180 3.0 0.0 0.00 0.14 0.00 71 1023.2
20260507080608 64 180 9.0 0.0 0.00 0.14 0.00 71 1023.2
20260507080508 64 180 3.0 0.0 0.00 0.14 0.00 71 1023.2
20260507080408 64 180 9.0 0.0 0.00 0.14 0.00 71 1023.2
20260507080308 64 180 9.0 0.0 0.00 0.14 0.00 71 1023.0
20260507080208 64 157 0.0 0.0 0.00 0.14 0.00 71 1023.0
20260507080108 64 180 4.0 0.0 0.00 0.14 0.00 72 1023.2
20260507080008 64 180 0.0 0.0 0.00 0.14 0.00 72 1023.2
20260507075908 64 157 0.0 0.0 0.00 0.14 0.00 72 1023.2
20260507075808 64 202 0.0 0.0 0.00 0.14 0.00 72 1023.2
20260507075708 64 180 0.0 0.0 0.00 0.14 0.00 72 1023.2
20260507075608 64 202 0.0 0.0 0.00 0.14 0.00 73 1023.2
20260507075508 64 180 2.0 0.0 0.00 0.14 0.00 73 1023.2
20260507075408 64 202 0.0 0.0 0.00 0.14 0.00 73 1023.2
20260507075308 64 202 10.0 0.0 0.00 0.14 0.00 73 1023.0
20260507075208 64 202 0.0 0.0 0.00 0.14 0.00 73 1023.0
20260507075108 64 202 7.0 0.0 0.00 0.14 0.00 73 1023.2
20260507075008 63 180 0.0 0.0 0.00 0.14 0.00 73 1023.2
20260507074908 63 180 7.0 0.0 0.00 0.14 0.00 74 1023.0
20260507074808 63 180 7.0 0.0 0.00 0.14 0.00 74 1023.0
20260507074708 62 180 3.0 0.0 0.00 0.14 0.00 74 1023.2
20260507074608 62 202 4.0 0.0 0.00 0.14 0.00 74 1023.0
20260507074508 62 180 0.0 0.0 0.00 0.14 0.00 74 1023.0
20260507074408 61 180 11.0 0.0 0.00 0.14 0.00 74 1023.2
20260507074308 61 180 11.0 0.0 0.00 0.14 0.00 74 1023.0
20260507074208 61 180 8.0 0.0 0.00 0.14 0.00 74 1023.2
20260507074108 60 180 0.0 0.0 0.00 0.14 0.00 75 1023.2
20260507074008 60 180 0.0 0.0 0.00 0.14 0.00 75 1023.0
20260507073908 60 180 2.0 0.0 0.00 0.14 0.00 75 1023.2
20260507073808 60 180 10.0 0.0 0.00 0.14 0.00 75 1023.2
20260507073708 59 202 11.0 0.0 0.00 0.14 0.00 75 1023.0
20260507073608 59 180 1.0 0.0 0.00 0.14 0.00 75 1023.0
20260507073508 59 180 6.0 0.0 0.00 0.14 0.00 75 1023.2
20260507073408 59 180 0.0 0.0 0.00 0.14 0.00 75 1023.2
20260507073308 59 180 0.0 0.0 0.00 0.14 0.00 75 1023.0
20260507073208 58 180 5.0 0.0 0.00 0.14 0.00 75 1023.2
20260507073108 58 180 5.0 0.0 0.00 0.14 0.00 75 1023.2
20260507073008 58 202 6.0 0.0 0.00 0.14 0.00 75 1023.2
20260507072908 58 180 6.0 0.0 0.00 0.14 0.00 75 1023.2
20260507072808 58 157 0.0 0.0 0.00 0.14 0.00 75 1023.2
20260507072708 58 180 0.0 0.0 0.00 0.14 0.00 75 1023.2
20260507072608 58 202 0.0 0.0 0.00 0.14 0.00 75 1023.0
20260507072509 58 180 0.0 0.0 0.00 0.14 0.00 75 1023.0
20260507072408 58 202 3.0 0.0 0.00 0.14 0.00 76 1023.0
20260507072308 58 202 10.0 0.0 0.00 0.14 0.00 76 1023.2
20260507072208 58 180 2.0 0.0 0.00 0.14 0.00 76 1023.0
20260507072108 58 180 0.0 0.0 0.00 0.14 0.00 76 1023.0
20260507072008 58 180 0.0 0.0 0.00 0.14 0.00 76 1023.0
20260507071908 58 202 3.0 0.0 0.00 0.14 0.00 76 1023.0
20260507071808 57 202 3.0 0.0 0.00 0.14 0.00 76 1023.0
20260507071708 57 157 8.0 0.0 0.00 0.14 0.00 76 1023.0
20260507071608 57 157 0.0 0.0 0.00 0.14 0.00 76 1023.0
20260507071508 57 180 6.0 0.0 0.00 0.14 0.00 76 1023.0
20260507071408 57 202 3.0 0.0 0.00 0.14 0.00 76 1022.9
20260507071308 57 202 9.0 0.0 0.00 0.14 0.00 76 1023.0
20260507071208 57 180 10.0 0.0 0.00 0.14 0.00 76 1023.0
20260507071108 57 180 0.0 0.0 0.00 0.14 0.00 76 1023.0
20260507071008 57 202 4.0 0.0 0.00 0.14 0.00 76 1022.9
20260507070908 57 202 0.0 0.0 0.00 0.14 0.00 76 1023.0
20260507070808 57 202 1.0 0.0 0.00 0.14 0.00 76 1023.0
20260507070708 57 202 0.0 0.0 0.00 0.14 0.00 76 1022.9
20260507070608 57 225 6.0 0.0 0.00 0.14 0.00 76 1022.9
20260507070508 56 202 3.0 0.0 0.00 0.14 0.00 76 1022.9
20260507070408 57 180 5.0 0.0 0.00 0.14 0.00 76 1022.9
20260507070308 56 157 2.0 0.0 0.00 0.14 0.00 76 1022.9
20260507070208 56 180 2.0 0.0 0.00 0.14 0.00 77 1022.9
20260507070108 56 157 0.0 0.0 0.00 0.14 0.00 77 1023.0
20260507070011 56 202 11.0 0.0 0.00 0.14 0.00 77 1022.9
20260507065908 56 180 0.0 0.0 0.00 0.14 0.00 77 1022.9
20260507065808 56 180 0.0 0.0 0.00 0.14 0.00 77 1023.0
20260507065708 56 180 0.0 0.0 0.00 0.14 0.00 77 1022.7
20260507065608 56 202 0.0 0.0 0.00 0.14 0.00 77 1022.7
20260507065508 56 202 183.0 0.0 0.00 0.14 0.00 77 1022.9
20260507065408 56 180 3.0 0.0 0.00 0.14 0.00 77 1023.0
20260507065308 56 180 1.0 0.0 0.00 0.14 0.00 77 1022.9
20260507065208 56 180 10.0 0.0 0.00 0.14 0.00 77 1022.9
20260507065108 56 180 3.0 0.0 0.00 0.14 0.00 77 1022.9
20260507065008 56 202 4.0 0.0 0.00 0.14 0.00 77 1022.9
20260507064908 56 202 2.0 0.0 0.00 0.14 0.00 77 1022.9
20260507064808 56 180 1.0 0.0 0.00 0.14 0.00 77 1022.7
20260507064708 56 180 0.0 0.0 0.00 0.14 0.00 77 1022.7
20260507064608 56 180 3.0 0.0 0.00 0.14 0.00 77 1022.9
20260507064508 55 180 0.0 0.0 0.00 0.14 0.00 77 1022.7
20260507064408 56 157 0.0 0.0 0.00 0.14 0.00 77 1022.7
20260507064308 55 157 2.0 0.0 0.00 0.14 0.00 78 1022.7
20260507064208 55 180 0.0 0.0 0.00 0.14 0.00 78 1022.7
20260507064108 55 180 2.0 0.0 0.00 0.14 0.00 77 1022.7
20260507064008 55 157 0.0 0.0 0.00 0.14 0.00 77 1022.7
20260507063908 55 180 0.0 0.0 0.00 0.14 0.00 77 1022.7
20260507063808 55 202 6.0 0.0 0.00 0.14 0.00 77 1022.7
20260507063708 55 202 1.0 0.0 0.00 0.14 0.00 77 1022.7
20260507063608 55 202 0.0 0.0 0.00 0.14 0.00 77 1022.7
20260507063508 55 180 0.0 0.0 0.00 0.14 0.00 77 1022.9
20260507063408 54 180 5.0 0.0 0.00 0.14 0.00 77 1022.9
20260507063308 54 180 0.0 0.0 0.00 0.14 0.00 77 1022.9
20260507063208 54 180 5.0 0.0 0.00 0.14 0.00 78 1022.9
20260507063108 54 180 5.0 0.0 0.00 0.14 0.00 78 1022.9
20260507063008 54 180 6.0 0.0 0.00 0.14 0.00 78 1022.7
20260507062908 54 180 0.0 0.0 0.00 0.14 0.00 78 1022.7
20260507062808 54 202 7.0 0.0 0.00 0.14 0.00 78 1022.7
20260507062708 54 180 4.0 0.0 0.00 0.14 0.00 78 1022.9
20260507062608 54 180 0.0 0.0 0.00 0.14 0.00 78 1022.9
20260507062508 54 202 7.0 0.0 0.00 0.14 0.00 78 1022.7
20260507062408 54 157 0.0 0.0 0.00 0.14 0.00 78 1022.7
20260507062308 53 180 0.0 0.0 0.00 0.14 0.00 78 1022.7
20260507062208 53 180 8.0 0.0 0.00 0.14 0.00 78 1022.7
20260507062108 53 202 7.0 0.0 0.00 0.14 0.00 78 1022.7
20260507062008 53 180 2.0 0.0 0.00 0.14 0.00 78 1022.7
20260507061908 53 180 0.0 0.0 0.00 0.14 0.00 78 1022.7
20260507061808 53 180 0.0 0.0 0.00 0.14 0.00 78 1022.7
20260507061708 53 180 0.0 0.0 0.00 0.14 0.00 78 1022.7
20260507061608 53 180 0.0 0.0 0.00 0.14 0.00 78 1022.7
20260507061508 53 180 3.0 0.0 0.00 0.14 0.00 78 1022.7
20260507061408 53 202 0.0 0.0 0.00 0.14 0.00 78 1022.7
20260507061308 53 202 0.0 0.0 0.00 0.14 0.00 78 1022.7
20260507061208 53 202 0.0 0.0 0.02 0.14 0.00 78 1022.7
20260507061108 53 180 3.0 0.0 0.02 0.14 0.00 78 1022.7
20260507061018 53 202 5.0 0.0 0.02 0.14 0.00 78 1022.7
20260507060908 53 202 11.0 0.0 0.02 0.14 0.00 78 1022.7
20260507060808 53 180 0.0 0.0 0.02 0.14 0.00 78 1022.7
20260507060708 52 225 0.0 0.0 0.02 0.14 0.00 78 1022.7
20260507060608 52 180 6.0 0.0 0.02 0.14 0.00 78 1022.7
20260507060508 52 202 0.0 0.0 0.02 0.14 0.00 78 1022.7
20260507060408 52 180 0.0 0.0 0.02 0.14 0.00 78 1022.7
20260507060308 52 180 4.0 0.0 0.02 0.14 0.00 79 1022.7
20260507060208 52 157 0.0 0.0 0.02 0.14 0.00 79 1022.5
20260507060108 52 180 0.0 0.0 0.02 0.14 0.00 79 1022.5
20260507060008 52 180 7.0 0.0 0.02 0.02 0.00 79 1022.7
20260507055908 51 180 7.0 0.0 0.02 0.14 0.00 79 1022.7
20260507055808 51 180 0.0 0.0 0.02 0.14 0.00 79 1022.5
20260507055708 51 180 0.0 0.0 0.02 0.14 0.00 79 1022.4
20260507055608 51 180 0.0 0.0 0.02 0.14 0.00 79 1022.4
20260507055508 51 180 0.0 0.0 0.02 0.14 0.00 79 1022.4
20260507055408 51 202 0.0 0.0 0.02 0.14 0.00 79 1022.5
20260507055308 51 202 4.0 0.0 0.02 0.14 0.00 79 1022.5
20260507055208 51 180 3.0 0.0 0.02 0.14 0.00 79 1022.5
20260507055108 51 180 3.0 0.0 0.02 0.14 0.00 79 1022.4
20260507055008 50 202 0.0 0.0 0.02 0.14 0.00 79 1022.2
20260507054908 50 225 0.0 0.0 0.02 0.14 0.00 79 1022.4
20260507054808 50 202 5.0 0.0 0.02 0.14 0.00 79 1022.2
20260507054708 50 180 3.0 0.0 0.02 0.14 0.00 79 1022.2
20260507054608 50 202 5.0 0.0 0.02 0.14 0.00 79 1022.2
20260507054508 50 180 0.0 0.0 0.02 0.14 0.00 79 1022.2
20260507054408 50 202 8.0 0.0 0.02 0.14 0.00 79 1022.2
20260507054308 50 202 1.0 0.0 0.02 0.14 0.00 79 1022.4
20260507054200 50 180 2.0 0.0 0.02 0.14 0.00 79 1022.4
20260507054108 50 180 0.0 0.0 0.02 0.14 0.00 79 1022.4
20260507054008 50 180 0.0 0.0 0.02 0.14 0.00 79 1022.4
20260507053908 50 202 2.0 0.0 0.02 0.14 0.00 79 1022.2
20260507053808 50 180 10.0 0.0 0.02 0.14 0.00 79 1022.4
20260507053708 49 180 3.0 0.0 0.02 0.14 0.00 79 1022.2
20260507053611 49 180 8.0 0.0 0.02 0.14 0.00 79 1022.4
20260507053408 49 180 9.0 0.0 0.02 0.14 0.00 79 1022.4
20260507053308 49 180 6.0 0.0 0.02 0.14 0.00 79 1022.2
20260507053208 49 202 2.0 0.0 0.02 0.14 0.00 79 1022.4
20260507053108 49 180 0.0 0.0 0.02 0.14 0.00 79 1022.2
20260507053008 49 180 5.0 0.0 0.02 0.14 0.00 79 1022.2
20260507052908 49 180 2.0 0.0 0.02 0.14 0.00 79 1022.2
20260507052808 49 157 2.0 0.0 0.02 0.14 0.00 79 1022.2
20260507052708 49 180 4.0 0.0 0.02 0.14 0.00 79 1022.2
20260507052608 49 180 4.0 0.0 0.02 0.14 0.00 79 1022.2
20260507052508 48 202 4.0 0.0 0.02 0.14 0.00 79 1022.2
20260507052408 48 180 2.0 0.0 0.04 0.14 0.00 79 1022.2
20260507052308 48 180 4.0 0.0 0.04 0.14 0.00 79 1022.2
20260507052208 48 157 4.0 0.0 0.04 0.14 0.00 79 1022.2
20260507052108 48 180 0.0 0.0 0.04 0.14 0.00 79 1022.2
20260507052008 48 180 0.0 0.0 0.04 0.14 0.00 79 1022.2
20260507051908 48 180 0.0 0.0 0.04 0.14 0.00 79 1022.2
20260507051808 48 180 0.0 0.0 0.04 0.14 0.00 79 1022.2
20260507051708 48 180 0.0 0.0 0.04 0.14 0.00 79 1022.2
20260507051608 48 180 0.0 0.0 0.04 0.12 0.00 79 1022.2
20260507051508 48 180 0.0 0.0 0.02 0.12 0.00 79 1022.2
20260507051408 48 180 0.0 0.0 0.02 0.12 0.00 79 1022.0
20260507051308 48 180 0.0 0.0 0.02 0.12 0.00 79 1022.2
20260507051208 48 180 0.0 0.0 0.02 0.12 0.00 79 1022.2
20260507051108 48 180 0.0 0.0 0.02 0.12 0.00 79 1022.2
20260507051008 48 180 0.0 0.0 0.02 0.12 0.00 79 1022.0
20260507050908 48 180 0.0 0.0 0.02 0.12 0.00 79 1022.2
20260507050808 48 180 1.0 0.0 0.02 0.12 0.00 79 1022.0
20260507050708 48 180 0.0 0.0 0.02 0.12 0.00 79 1022.2
20260507050608 48 180 4.0 0.0 0.02 0.12 0.00 79 1022.0
20260507050508 48 180 0.0 0.0 0.02 0.12 0.00 79 1022.0
20260507050408 48 180 0.0 0.0 0.02 0.12 0.00 79 1022.0
20260507050308 48 180 1.0 0.0 0.02 0.12 0.00 79 1022.0
20260507050208 48 180 0.0 0.0 0.02 0.12 0.00 79 1022.0
20260507050108 48 180 3.0 0.0 0.02 0.12 0.00 79 1022.0
20260507050008 48 180 0.0 0.0 0.02 0.12 0.00 79 1021.9
20260507045908 48 157 0.0 0.0 0.02 0.12 0.00 79 1021.9
20260507045808 48 180 0.0 0.0 0.02 0.12 0.00 79 1021.9
20260507045708 48 180 2.0 0.0 0.02 0.12 0.00 79 1021.9
20260507045608 48 180 0.0 0.0 0.02 0.12 0.00 79 1021.7
20260507045508 48 180 0.0 0.0 0.02 0.12 0.00 79 1021.9
20260507045408 48 180 0.0 0.0 0.02 0.12 0.00 79 1021.9
20260507045308 47 180 0.0 0.0 0.02 0.12 0.00 79 1021.9
20260507045208 47 180 0.0 0.0 0.02 0.12 0.00 79 1021.9
20260507045108 47 202 0.0 0.0 0.02 0.12 0.00 79 1021.9
20260507045008 47 202 0.0 0.0 0.02 0.12 0.00 79 1021.7
20260507044908 47 202 0.0 0.0 0.02 0.12 0.00 79 1021.9
20260507044808 47 202 0.0 0.0 0.02 0.12 0.00 79 1021.7
20260507044708 47 202 0.0 0.0 0.02 0.12 0.00 79 1021.7
20260507044608 47 202 0.0 0.0 0.02 0.12 0.00 79 1021.9
20260507044508 47 202 0.0 0.0 0.02 0.12 0.00 79 1021.7
20260507044408 47 202 0.0 0.0 0.02 0.12 0.00 79 1021.7
20260507044308 47 202 0.0 0.0 0.02 0.12 0.00 79 1021.9
20260507044208 47 202 0.0 0.0 0.02 0.12 0.00 79 1021.7
20260507044108 47 202 0.0 0.0 0.02 0.12 0.00 79 1021.7
20260507044008 47 202 0.0 0.0 0.02 0.12 0.00 79 1021.7
20260507043908 47 202 0.0 0.0 0.02 0.12 0.00 79 1021.7
20260507043808 47 202 0.0 0.0 0.02 0.12 0.00 79 1021.7
20260507043708 47 202 0.0 0.0 0.02 0.12 0.00 79 1021.7
20260507043608 47 202 0.0 0.0 0.02 0.12 0.00 79 1021.7
20260507043508 47 202 0.0 0.0 0.02 0.12 0.00 79 1021.5
20260507043408 47 202 0.0 0.0 0.02 0.12 0.00 79 1021.5
20260507043308 47 202 0.0 0.0 0.02 0.12 0.00 79 1021.7
20260507043208 47 202 0.0 0.0 0.02 0.12 0.00 79 1021.7
20260507043108 47 180 0.0 0.0 0.02 0.12 0.00 79 1021.5
20260507043008 47 180 0.0 0.0 0.02 0.12 0.00 79 1021.5
20260507042908 47 180 2.0 0.0 0.02 0.12 0.00 79 1021.5
20260507042808 47 180 0.0 0.0 0.02 0.12 0.00 79 1021.5
20260507042708 47 202 6.0 0.0 0.00 0.10 0.00 79 1021.5
20260507042608 47 202 5.0 0.0 0.00 0.10 0.00 79 1021.5
20260507042508 47 180 0.0 0.0 0.00 0.10 0.00 79 1021.5
20260507042408 47 180 0.0 0.0 0.00 0.10 0.00 79 1021.5
20260507042308 47 180 5.0 0.0 0.00 0.10 0.00 79 1021.5
20260507042208 47 180 0.0 0.0 0.00 0.10 0.00 79 1021.5
20260507042108 47 180 0.0 0.0 0.00 0.10 0.00 79 1021.5
20260507042008 47 180 0.0 0.0 0.00 0.10 0.00 79 1021.5
20260507041908 47 202 0.0 0.0 0.00 0.10 0.00 79 1021.5
20260507041808 47 202 8.0 0.0 0.00 0.10 0.00 79 1021.5
20260507041708 47 180 0.0 0.0 0.00 0.10 0.00 79 1021.5
20260507041608 47 202 5.0 0.0 0.00 0.10 0.00 79 1021.5
20260507041508 47 202 0.0 0.0 0.00 0.10 0.00 79 1021.5
20260507041408 47 202 0.0 0.0 0.00 0.10 0.00 79 1021.5
20260507041308 47 202 3.0 0.0 0.00 0.10 0.00 79 1021.5
20260507041208 47 180 2.0 0.0 0.00 0.10 0.00 79 1021.5
20260507041108 47 180 8.0 0.0 0.00 0.10 0.00 79 1021.5
20260507041008 47 202 1.0 0.0 0.00 0.10 0.00 79 1021.5
20260507040908 47 180 0.0 0.0 0.00 0.10 0.00 79 1021.5
20260507040808 47 180 4.0 0.0 0.00 0.10 0.00 79 1021.5
20260507040708 47 180 0.0 0.0 0.00 0.10 0.00 79 1021.5
20260507040608 47 180 0.0 0.0 0.00 0.10 0.00 79 1021.5
20260507040508 47 180 0.0 0.0 0.00 0.10 0.00 79 1021.5
20260507040408 47 202 0.0 0.0 0.00 0.10 0.00 79 1021.5
20260507040308 47 180 0.0 0.0 0.00 0.10 0.00 79 1021.5
20260507040208 47 180 0.0 0.0 0.00 0.10 0.00 79 1021.5
20260507040108 47 180 2.0 0.0 0.00 0.10 0.00 79 1021.5
20260507040008 47 180 0.0 0.0 0.00 0.10 0.00 79 1021.5
20260507035908 47 202 0.0 0.0 0.00 0.10 0.00 79 1021.5
20260507035808 47 180 9.0 0.0 0.00 0.10 0.00 79 1021.5
20260507035708 47 180 1.0 0.0 0.00 0.10 0.00 79 1021.5
20260507035608 47 202 11.0 0.0 0.00 0.10 0.00 79 1021.5
20260507035508 47 157 1.0 0.0 0.00 0.10 0.00 79 1021.5
20260507035408 47 180 0.0 0.0 0.00 0.10 0.00 79 1021.5
20260507035308 47 202 5.0 0.0 0.00 0.10 0.00 79 1021.5
20260507035208 47 202 8.0 0.0 0.00 0.10 0.00 79 1021.5
20260507035108 47 180 0.0 0.0 0.00 0.10 0.00 79 1021.5
20260507035008 47 180 9.0 0.0 0.00 0.10 0.00 79 1021.5
20260507034908 47 202 4.0 0.0 0.00 0.10 0.00 79 1021.5
20260507034808 46 180 8.0 0.0 0.00 0.10 0.00 79 1021.4
20260507034708 46 180 3.0 0.0 0.00 0.10 0.00 79 1021.5
20260507034608 46 180 3.0 0.0 0.00 0.10 0.00 79 1021.5
20260507034508 46 180 0.0 0.0 0.00 0.10 0.00 79 1021.5
20260507034408 46 202 6.0 0.0 0.00 0.10 0.00 79 1021.5
20260507034308 46 180 0.0 0.0 0.00 0.10 0.00 79 1021.5
20260507034208 46 180 0.0 0.0 0.00 0.10 0.00 79 1021.5
20260507034108 46 180 0.0 0.0 0.00 0.10 0.00 79 1021.5
20260507034008 46 180 3.0 0.0 0.00 0.10 0.00 79 1021.5
20260507033908 46 180 4.0 0.0 0.00 0.10 0.00 79 1021.5
20260507033808 46 180 1.0 0.0 0.00 0.10 0.00 79 1021.5
20260507033708 46 180 0.0 0.0 0.00 0.10 0.00 79 1021.5
20260507033608 46 180 5.0 0.0 0.00 0.10 0.00 79 1021.5
20260507033508 46 180 7.0 0.0 0.00 0.10 0.00 79 1021.4
20260507033408 46 180 0.0 0.0 0.00 0.10 0.00 79 1021.5
20260507033308 46 180 5.0 0.0 0.00 0.10 0.00 79 1021.4
20260507033208 46 180 2.0 0.0 0.00 0.10 0.00 79 1021.4
20260507033108 46 180 10.0 0.0 0.00 0.10 0.00 79 1021.4
20260507033008 46 202 7.0 0.0 0.00 0.10 0.00 79 1021.2
20260507032908 46 180 6.0 0.0 0.00 0.10 0.00 79 1021.4
20260507032808 46 180 6.0 0.0 0.00 0.10 0.00 79 1021.5
20260507032708 46 180 8.0 0.0 0.00 0.10 0.00 79 1021.2
20260507032608 46 180 1.0 0.0 0.00 0.10 0.00 79 1021.2
20260507032508 46 157 2.0 0.0 0.00 0.10 0.00 79 1021.4
20260507032408 46 180 10.0 0.0 0.00 0.10 0.00 79 1021.4
20260507032308 46 180 5.0 0.0 0.08 0.10 0.00 79 1021.4
20260507032208 46 157 0.0 0.0 0.00 0.10 0.00 79 1021.2
20260507032108 46 180 2.0 0.0 0.00 0.10 0.00 79 1021.2
20260507032008 46 180 5.0 0.0 0.00 0.10 0.00 79 1021.2
20260507031919 46 180 9.0 0.0 0.00 0.10 0.00 79 1021.2
20260507031708 46 180 0.0 0.0 0.00 0.10 0.00 79 1021.4
20260507031608 46 157 0.0 0.0 0.00 0.10 0.00 79 1021.4
20260507031508 46 157 3.0 0.0 0.00 0.10 0.00 79 1021.2
20260507031408 46 202 13.0 0.0 0.00 0.10 0.00 79 1021.2
20260507031308 46 180 0.0 0.0 0.00 0.10 0.00 79 1021.4
20260507031208 46 180 8.0 0.0 0.00 0.10 0.00 79 1021.4
20260507031108 46 202 6.0 0.0 0.00 0.10 0.00 79 1021.4
20260507031008 46 180 5.0 0.0 0.00 0.10 0.00 79 1021.2
20260507030908 46 180 0.0 0.0 0.00 0.10 0.00 79 1021.2
20260507030808 46 202 8.0 0.0 0.00 0.10 0.00 79 1021.2
20260507030708 46 180 0.0 0.0 0.00 0.10 0.00 79 1021.2
20260507030608 46 157 7.0 0.0 0.00 0.10 0.00 79 1021.2
20260507030508 46 180 0.0 0.0 0.00 0.10 0.00 79 1021.2
20260507030408 46 180 0.0 0.0 0.00 0.10 0.00 79 1021.2
20260507030308 46 180 0.0 0.0 0.00 0.10 0.00 79 1021.2
20260507030208 46 180 0.0 0.0 0.00 0.10 0.00 79 1021.2
20260507030108 46 180 10.0 0.0 0.00 0.10 0.00 79 1021.2
20260507030008 46 180 0.0 0.0 0.00 0.10 0.00 79 1021.2
20260507025908 46 202 0.0 0.0 0.00 0.10 0.00 79 1021.2
20260507025808 46 180 0.0 0.0 0.00 0.10 0.00 79 1021.2
20260507025708 46 180 3.0 0.0 0.00 0.10 0.00 79 1021.2
20260507025608 46 157 2.0 0.0 0.00 0.10 0.00 79 1021.2
20260507025508 46 180 0.0 0.0 0.00 0.10 0.00 79 1021.2
20260507025408 46 180 0.0 0.0 0.00 0.10 0.00 79 1021.2
20260507025308 46 202 0.0 0.0 0.00 0.10 0.00 79 1021.0
20260507025208 46 202 3.0 0.0 0.00 0.10 0.00 79 1021.0
20260507025108 46 157 0.0 0.0 0.00 0.10 0.00 79 1021.2
20260507025008 46 180 0.0 0.0 0.00 0.10 0.00 79 1021.2
20260507024908 46 180 0.0 0.0 0.00 0.10 0.00 79 1021.0
20260507024808 46 157 0.0 0.0 0.00 0.10 0.00 79 1021.0
20260507024708 46 180 0.0 0.0 0.00 0.10 0.00 79 1021.2
20260507024608 45 180 3.0 0.0 0.00 0.10 0.00 79 1021.2
20260507024508 45 180 2.0 0.0 0.00 0.10 0.00 79 1021.0
20260507024408 45 180 3.0 0.0 0.00 0.10 0.00 79 1021.0
20260507024308 45 180 0.0 0.0 0.00 0.10 0.00 79 1021.0
20260507024208 45 180 3.0 0.0 0.00 0.10 0.00 79 1021.0
20260507024108 45 157 1.0 0.0 0.00 0.10 0.00 79 1021.0
20260507024008 45 180 4.0 0.0 0.00 0.10 0.00 79 1021.0
20260507023908 45 180 1.0 0.0 0.00 0.10 0.00 79 1021.0
20260507023808 45 180 13.0 0.0 0.00 0.10 0.00 79 1021.0
20260507023708 45 157 0.0 0.0 0.00 0.10 0.00 79 1021.0
20260507023608 45 180 4.0 0.0 0.00 0.10 0.00 79 1021.0
20260507023508 45 157 0.0 0.0 0.00 0.10 0.00 79 1021.0
20260507023408 45 180 0.0 0.0 0.00 0.10 0.00 79 1021.0
20260507023308 45 180 0.0 0.0 0.00 0.10 0.00 79 1021.0
20260507023208 45 180 6.0 0.0 0.00 0.10 0.00 79 1021.0
20260507023108 45 202 5.0 0.0 0.00 0.10 0.00 79 1021.0
20260507023008 45 202 6.0 0.0 0.00 0.10 0.00 79 1021.0
20260507022908 45 180 1.0 0.0 0.00 0.10 0.00 79 1021.0
20260507022808 45 157 2.0 0.0 0.00 0.10 0.00 79 1021.0
20260507022708 45 157 0.0 0.0 0.00 0.10 0.00 79 1021.0
20260507022608 45 180 0.0 0.0 0.00 0.10 0.00 79 1021.0
20260507022508 44 180 0.0 0.0 0.00 0.10 0.00 79 1021.0
20260507022408 44 180 0.0 0.0 0.00 0.10 0.00 79 1021.0
20260507022308 44 180 0.0 0.0 0.00 0.10 0.00 79 1021.2
20260507022208 44 180 0.0 0.0 0.00 0.10 0.00 78 1021.0
20260507022108 44 180 0.0 0.0 0.00 0.10 0.00 78 1021.0
20260507022008 44 180 0.0 0.0 0.00 0.10 0.00 79 1021.0
20260507021908 44 180 0.0 0.0 0.00 0.10 0.00 79 1021.0
20260507021808 44 180 0.0 0.0 0.00 0.10 0.00 79 1021.0
20260507021708 44 180 0.0 0.0 0.00 0.10 0.00 79 1021.0
20260507021608 44 180 0.0 0.0 0.00 0.10 0.00 79 1021.0
20260507021508 44 180 0.0 0.0 0.00 0.10 0.00 79 1021.0
20260507021408 44 157 0.0 0.0 0.00 0.10 0.00 79 1021.0
20260507021308 44 180 0.0 0.0 0.00 0.10 0.00 78 1021.0
20260507021200 44 247 0.0 0.0 0.00 0.10 0.00 78 1021.0
20260507021108 44 247 0.0 0.0 0.00 0.10 0.00 78 1021.0
20260507021008 44 247 0.0 0.0 0.00 0.10 0.00 78 1021.2
20260507020908 44 247 0.0 0.0 0.00 0.10 0.00 78 1021.0
20260507020808 44 247 0.0 0.0 0.00 0.10 0.00 78 1021.0
20260507020708 44 247 0.0 0.0 0.00 0.10 0.00 78 1021.0
20260507020608 44 247 0.0 0.0 0.00 0.10 0.00 78 1021.0
20260507020508 44 247 0.0 0.0 0.00 0.10 0.00 78 1021.0
20260507020408 44 247 0.0 0.0 0.00 0.10 0.00 78 1021.0
20260507020308 44 247 0.0 0.0 0.00 0.10 0.00 78 1021.0
20260507020208 44 247 0.0 0.0 0.00 0.10 0.00 78 1021.0
20260507020108 44 247 0.0 0.0 0.00 0.10 0.00 78 1021.0
20260507020008 44 247 0.0 0.0 0.00 0.10 0.00 78 1021.0
20260507015908 43 247 0.0 0.0 0.00 0.10 0.00 78 1021.0
20260507015808 43 247 0.0 0.0 0.00 0.10 0.00 78 1021.0
20260507015708 43 247 0.0 0.0 0.00 0.10 0.00 78 1021.0
20260507015608 43 247 0.0 0.0 0.00 0.10 0.00 78 1021.0
20260507015508 43 247 0.0 0.0 0.00 0.10 0.00 78 1021.0
20260507015408 43 247 0.0 0.0 0.00 0.10 0.00 78 1020.9
20260507015308 43 247 0.0 0.0 0.00 0.10 0.00 78 1021.0
20260507015208 43 247 0.0 0.0 0.00 0.10 0.00 78 1021.0
20260507015108 43 247 0.0 0.0 0.00 0.10 0.00 78 1021.0
20260507015008 43 247 0.0 0.0 0.00 0.10 0.00 78 1020.9
20260507014908 43 247 0.0 0.0 0.00 0.10 0.00 78 1021.0
20260507014808 43 247 0.0 0.0 0.00 0.10 0.00 78 1021.0
20260507014708 43 247 0.0 0.0 0.00 0.10 0.00 78 1020.9
20260507014608 43 247 0.0 0.0 0.00 0.10 0.00 78 1020.9
20260507014508 43 247 0.0 0.0 0.00 0.10 0.00 78 1020.7
20260507014408 43 247 0.0 0.0 0.00 0.10 0.00 78 1020.9
20260507014308 43 247 0.0 0.0 0.00 0.10 0.00 78 1020.9
20260507014200 43 247 0.0 0.0 0.00 0.10 0.00 78 1020.9
20260507014108 43 247 0.0 0.0 0.00 0.10 0.00 78 1020.9
20260507014008 43 247 0.0 0.0 0.00 0.10 0.00 78 1020.7
20260507013908 43 247 0.0 0.0 0.00 0.10 0.00 78 1020.7
20260507013808 43 247 0.0 0.0 0.00 0.10 0.00 78 1020.7
20260507013708 42 247 0.0 0.0 0.00 0.10 0.00 78 1020.7
20260507013608 42 247 0.0 0.0 0.00 0.10 0.00 78 1020.9
20260507013508 42 247 0.0 0.0 0.00 0.10 0.00 78 1020.9
20260507013408 42 247 0.0 0.0 0.00 0.10 0.00 78 1020.7
20260507013308 42 247 0.0 0.0 0.00 0.10 0.00 78 1020.7
20260507013208 42 247 0.0 0.0 0.00 0.10 0.00 78 1020.7
20260507013108 42 247 0.0 0.0 0.00 0.10 0.00 78 1020.7
20260507013008 42 247 0.0 0.0 0.00 0.10 0.00 78 1020.7
20260507012908 42 202 0.0 0.0 0.00 0.10 0.00 78 1020.9
20260507012808 42 180 0.0 0.0 0.00 0.10 0.00 78 1020.7
20260507012700 42 180 0.0 0.0 0.00 0.10 0.00 78 1020.7
20260507012608 42 180 0.0 0.0 0.00 0.10 0.00 78 1020.7
20260507012508 42 157 0.0 0.0 0.00 0.10 0.00 78 1020.7
20260507012408 42 157 0.0 0.0 0.00 0.10 0.00 77 1020.7
20260507012308 42 157 0.0 0.0 0.00 0.10 0.00 77 1020.7
20260507012208 42 157 0.0 0.0 0.00 0.10 0.00 77 1020.5
20260507012108 42 157 0.0 0.0 0.00 0.10 0.00 77 1020.7
20260507012008 42 157 0.0 0.0 0.00 0.10 0.00 77 1020.7
20260507011908 41 157 0.0 0.0 0.00 0.10 0.00 77 1020.7
20260507011808 41 157 0.0 0.0 0.00 0.10 0.00 77 1020.7
20260507011708 41 157 0.0 0.0 0.00 0.10 0.00 77 1020.7
20260507011608 41 157 0.0 0.0 0.00 0.10 0.00 77 1020.7
20260507011508 41 157 0.0 0.0 0.00 0.10 0.00 77 1020.7
20260507011408 41 157 0.0 0.0 0.00 0.10 0.00 77 1020.7
20260507011308 41 157 0.0 0.0 0.00 0.10 0.00 77 1020.7
20260507011208 41 157 0.0 0.0 0.00 0.10 0.00 77 1020.7
20260507011108 41 157 0.0 0.0 0.00 0.10 0.00 77 1020.7
20260507011008 41 157 0.0 0.0 0.00 0.10 0.00 77 1020.9
20260507010908 41 157 0.0 0.0 0.00 0.10 0.00 77 1020.9
20260507010808 41 157 0.0 0.0 0.00 0.10 0.00 77 1020.7
20260507010708 42 157 0.0 0.0 0.00 0.10 0.00 77 1020.9
20260507010608 42 157 0.0 0.0 0.00 0.10 0.00 77 1020.9
20260507010508 42 157 0.0 0.0 0.00 0.10 0.00 77 1020.9
20260507010408 42 157 0.0 0.0 0.00 0.10 0.00 77 1020.9
20260507010308 42 157 0.0 0.0 0.00 0.10 0.00 77 1020.7
20260507010208 42 157 0.0 0.0 0.00 0.10 0.00 77 1020.7
20260507010108 42 157 0.0 0.0 0.00 0.10 0.00 77 1020.7
20260507010007 42 157 0.0 0.0 0.00 0.10 0.00 77 1020.7
20260507005908 42 157 0.0 0.0 0.00 0.10 0.00 77 1020.7
20260507005807 42 157 0.0 0.0 0.00 0.10 0.00 77 1020.7
20260507005700 42 157 0.0 0.0 0.00 0.10 0.00 77 1020.7
20260507005608 42 157 0.0 0.0 0.00 0.10 0.00 77 1020.7
20260507005508 42 157 0.0 0.0 0.00 0.10 0.00 77 1020.7
20260507005408 42 157 0.0 0.0 0.00 0.10 0.00 77 1020.7
20260507005308 42 157 0.0 0.0 0.00 0.10 0.00 77 1020.7
20260507005208 42 157 0.0 0.0 0.00 0.10 0.00 77 1020.7
20260507005108 42 157 0.0 0.0 0.00 0.10 0.00 77 1020.7
20260507005007 42 157 0.0 0.0 0.00 0.10 0.00 77 1020.7
20260507004908 42 157 0.0 0.0 0.00 0.10 0.00 77 1020.7
20260507004808 42 157 0.0 0.0 0.00 0.10 0.00 77 1020.7
20260507004708 42 157 0.0 0.0 0.00 0.10 0.00 77 1020.5
20260507004608 42 157 0.0 0.0 0.00 0.10 0.00 77 1020.5
20260507004507 42 157 0.0 0.0 0.00 0.10 0.00 77 1020.5
20260507004407 42 157 0.0 0.0 0.00 0.10 0.00 77 1020.5
20260507004307 42 157 0.0 0.0 0.00 0.10 0.00 77 1020.5
20260507004207 42 157 0.0 0.0 0.00 0.10 0.00 77 1020.5
20260507004108 42 157 0.0 0.0 0.00 0.10 0.00 77 1020.5
20260507004008 42 157 0.0 0.0 0.00 0.10 0.00 77 1020.5
20260507003908 42 157 0.0 0.0 0.00 0.10 0.00 77 1020.5
20260507003807 42 157 0.0 0.0 0.00 0.10 0.00 77 1020.5
20260507003708 42 157 0.0 0.0 0.00 0.10 0.00 77 1020.5
20260507003608 42 157 0.0 0.0 0.00 0.10 0.00 77 1020.5
20260507003507 42 157 0.0 0.0 0.00 0.10 0.00 77 1020.5
20260507003407 42 157 0.0 0.0 0.00 0.10 0.00 77 1020.5
20260507003307 42 157 0.0 0.0 0.00 0.10 0.00 77 1020.5
20260507003207 42 157 0.0 0.0 0.00 0.10 0.00 77 1020.5
20260507003107 42 157 0.0 0.0 0.00 0.10 0.00 77 1020.5
20260507003007 42 157 0.0 0.0 0.00 0.10 0.00 77 1020.5
20260507002907 42 157 0.0 0.0 0.00 0.10 0.00 77 1020.5
20260507002807 42 157 0.0 0.0 0.00 0.10 0.00 77 1020.4
20260507002707 42 157 0.0 0.0 0.00 0.10 0.00 77 1020.4
20260507002607 42 157 0.0 0.0 0.00 0.10 0.00 77 1020.4
20260507002507 42 157 183.0 0.0 0.00 0.10 0.00 77 1020.4
20260507002407 42 157 0.0 0.0 0.00 0.10 0.00 77 1020.2
20260507002307 42 157 0.0 0.0 0.00 0.10 0.00 77 1020.2
20260507002207 42 157 0.0 0.0 0.00 0.10 0.00 77 1020.4
20260507002107 42 157 0.0 0.0 0.00 0.10 0.00 76 1020.4
20260507002007 42 157 0.0 0.0 0.00 0.10 0.00 76 1020.4
20260507001907 42 157 0.0 0.0 0.00 0.10 0.00 76 1020.4
20260507001807 42 157 0.0 0.0 0.00 0.10 0.00 76 1020.4
20260507001707 42 157 0.0 0.0 0.00 0.10 0.00 76 1020.4
20260507001607 42 157 0.0 0.0 0.00 0.10 0.00 76 1020.2
20260507001507 42 157 0.0 0.0 0.00 0.10 0.00 76 1020.4
20260507001407 42 157 0.0 0.0 0.00 0.10 0.00 76 1020.2
20260507001307 42 157 0.0 0.0 0.00 0.10 0.00 76 1020.2
20260507001207 42 157 0.0 0.0 0.00 0.10 0.00 76 1020.4
20260507001108 42 157 0.0 0.0 0.00 0.10 0.00 76 1020.4
20260507001007 42 157 0.0 0.0 0.00 0.10 0.00 76 1020.2
20260507000907 42 157 0.0 0.0 0.00 0.10 0.00 76 1020.2
20260507000807 42 157 0.0 0.0 0.00 0.10 0.00 76 1020.2
20260507000707 42 157 0.0 0.0 0.00 0.10 0.00 76 1020.2
20260507000607 42 157 0.0 0.0 0.00 0.10 0.00 76 1020.2
20260507000507 42 157 0.0 0.0 0.00 0.10 0.00 76 1020.2
20260507000407 42 157 0.0 0.0 0.00 0.10 0.00 76 1020.2
20260507000307 42 157 0.0 0.0 0.00 0.10 0.00 76 1020.4
20260507000207 42 157 0.0 0.0 0.00 0.10 0.00 76 1020.2
20260507000107 42 157 0.0 0.0 0.00 0.10 0.00 76 1020.2
20260507000007 42 157 0.0 0.0 0.00 0.10 0.00 76 1020.2
20260506235907 42 157 0.0 0.0 0.00 0.10 0.00 76 1020.2
20260506235807 42 157 0.0 0.0 0.00 0.10 0.00 76 1020.2
20260506235707 42 157 0.0 0.0 0.00 0.10 0.00 76 1020.2
20260506235607 42 157 0.0 0.0 0.00 0.10 0.00 76 1020.4
20260506235507 42 157 0.0 0.0 0.00 0.10 0.00 76 1020.4
20260506235407 42 157 0.0 0.0 0.00 0.10 0.00 76 1020.4
20260506235307 42 157 0.0 0.0 0.00 0.10 0.00 76 1020.5
20260506235207 42 157 0.0 0.0 0.00 0.10 0.00 76 1020.4
20260506235107 42 157 0.0 0.0 0.00 0.10 0.00 76 1020.5
20260506235007 42 157 0.0 0.0 0.00 0.10 0.00 76 1020.5
20260506234907 43 157 0.0 0.0 0.00 0.10 0.00 76 1020.4
20260506234807 43 157 0.0 0.0 0.00 0.10 0.00 76 1020.5
20260506234707 43 157 0.0 0.0 0.00 0.10 0.00 76 1020.5
20260506234607 43 157 0.0 0.0 0.00 0.10 0.00 76 1020.4
20260506234507 43 157 0.0 0.0 0.00 0.10 0.00 76 1020.4
20260506234407 43 157 0.0 0.0 0.00 0.10 0.00 76 1020.5
20260506234307 43 157 0.0 0.0 0.00 0.10 0.00 76 1020.4
20260506234207 43 157 0.0 0.0 0.00 0.10 0.00 76 1020.4
20260506234107 43 157 0.0 0.0 0.00 0.10 0.00 76 1020.4
20260506234007 43 157 0.0 0.0 0.00 0.10 0.00 76 1020.4
20260506233907 43 157 0.0 0.0 0.00 0.10 0.00 76 1020.2
20260506233807 43 157 0.0 0.0 0.00 0.10 0.00 76 1020.4
20260506233707 43 157 0.0 0.0 0.00 0.10 0.00 76 1020.4
20260506233607 43 157 0.0 0.0 0.00 0.10 0.00 76 1020.4
20260506233507 43 157 0.0 0.0 0.00 0.10 0.00 76 1020.2
20260506233407 43 157 0.0 0.0 0.00 0.10 0.00 76 1020.2
20260506233307 43 157 0.0 0.0 0.00 0.10 0.00 76 1020.2
20260506233207 43 157 0.0 0.0 0.00 0.10 0.00 76 1020.2
20260506233107 43 157 0.0 0.0 0.00 0.10 0.00 76 1020.2
20260506233007 43 157 0.0 0.0 0.00 0.10 0.00 76 1020.2
20260506232907 43 157 0.0 0.0 0.00 0.10 0.00 75 1020.2
20260506232807 44 157 0.0 0.0 0.00 0.10 0.00 75 1020.4
20260506232707 44 157 0.0 0.0 0.00 0.10 0.00 75 1020.2
20260506232607 44 157 0.0 0.0 0.00 0.10 0.00 75 1020.4
20260506232508 44 157 0.0 0.0 0.00 0.10 0.00 75 1020.4
20260506232407 44 157 0.0 0.0 0.00 0.10 0.00 75 1020.2
20260506232307 44 157 0.0 0.0 0.00 0.10 0.00 75 1020.2
20260506232207 44 157 0.0 0.0 0.00 0.10 0.00 75 1020.2
20260506232107 44 157 0.0 0.0 0.00 0.10 0.00 75 1020.2
20260506232007 44 157 0.0 0.0 0.00 0.10 0.00 75 1020.2
20260506231907 44 157 0.0 0.0 0.00 0.10 0.00 75 1020.2
20260506231807 44 157 0.0 0.0 0.00 0.10 0.00 75 1020.2
20260506231707 44 157 0.0 0.0 0.00 0.10 0.00 75 1020.2
20260506231607 44 157 0.0 0.0 0.00 0.10 0.00 75 1020.2
20260506231507 44 157 0.0 0.0 0.00 0.10 0.00 75 1020.2
20260506231407 44 157 0.0 0.0 0.00 0.10 0.00 75 1020.2
20260506231307 44 157 0.0 0.0 0.00 0.10 0.00 75 1020.2
20260506231207 44 157 0.0 0.0 0.00 0.10 0.00 75 1020.2
20260506231107 44 157 0.0 0.0 0.00 0.10 0.00 75 1020.2
20260506231007 44 157 0.0 0.0 0.08 0.10 0.00 75 1020.2
20260506230907 44 157 0.0 0.0 0.00 0.10 0.00 75 1020.2
20260506230807 44 157 0.0 0.0 0.00 0.10 0.00 75 1020.2
20260506230707 44 157 0.0 0.0 0.00 0.10 0.00 75 1020.2
20260506230607 44 157 0.0 0.0 0.00 0.10 0.00 75 1020.2
20260506230507 44 157 0.0 0.0 0.00 0.10 0.00 75 1020.2
20260506230407 44 157 0.0 0.0 0.00 0.10 0.00 75 1020.2
20260506230307 44 157 0.0 0.0 0.00 0.10 0.00 75 1020.2
20260506230207 44 157 0.0 0.0 0.00 0.10 0.00 75 1020.2
20260506230107 44 157 0.0 0.0 0.00 0.10 0.00 75 1020.0
20260506230007 45 157 0.0 0.0 0.00 0.10 0.00 75 1020.2
20260506225907 45 157 0.0 0.0 0.00 0.10 0.00 75 1020.0
20260506225807 45 157 0.0 0.0 0.00 0.10 0.00 75 1020.0
20260506225707 45 180 0.0 0.0 0.00 0.10 0.00 75 1020.2
20260506225607 45 180 0.0 0.0 0.00 0.10 0.00 75 1020.2
20260506225507 45 157 0.0 0.0 0.00 0.10 0.00 75 1020.2
20260506225407 45 157 0.0 0.0 0.00 0.10 0.00 75 1020.2
20260506225307 45 157 0.0 0.0 0.00 0.10 0.00 75 1020.2
20260506225207 45 180 0.0 0.0 0.00 0.10 0.00 75 1020.2
20260506225107 45 180 0.0 0.0 0.00 0.10 0.00 75 1020.2
20260506225007 45 180 0.0 0.0 0.00 0.10 0.00 75 1020.2
20260506224907 45 180 0.0 0.0 0.00 0.10 0.00 75 1020.2
20260506224807 45 180 0.0 0.0 0.00 0.10 0.00 75 1020.2
20260506224707 45 157 0.0 0.0 0.00 0.10 0.00 75 1020.2
20260506224607 45 157 0.0 0.0 0.00 0.10 0.00 75 1020.2
20260506224507 45 157 0.0 0.0 0.00 0.10 0.00 75 1020.2
20260506224407 45 157 0.0 0.0 0.00 0.10 0.00 75 1020.2
20260506224307 45 157 0.0 0.0 0.00 0.10 0.00 75 1020.2
20260506224207 45 157 0.0 0.0 0.00 0.10 0.00 75 1020.2
20260506224107 45 180 0.0 0.0 0.00 0.10 0.00 75 1020.2
20260506224007 45 180 0.0 0.0 0.00 0.10 0.00 75 1020.2
20260506223907 45 180 0.0 0.0 0.00 0.10 0.00 75 1020.0
20260506223807 45 180 0.0 0.0 0.00 0.10 0.00 75 1020.2
20260506223707 45 180 0.0 0.0 0.00 0.10 0.00 75 1020.2
20260506223607 45 180 0.0 0.0 0.00 0.10 0.00 75 1020.2
20260506223507 45 180 0.0 0.0 0.00 0.10 0.00 75 1020.2
20260506223407 45 180 0.0 0.0 0.00 0.10 0.00 74 1020.2
20260506223307 45 180 0.0 0.0 0.00 0.10 0.00 74 1020.2
20260506223207 45 180 0.0 0.0 0.00 0.10 0.00 74 1020.2
20260506223107 45 180 0.0 0.0 0.00 0.10 0.00 74 1020.2
20260506223007 45 180 0.0 0.0 0.00 0.10 0.00 74 1020.4
20260506222907 45 180 0.0 0.0 0.00 0.10 0.00 74 1020.2
20260506222807 46 180 0.0 0.0 0.00 0.10 0.00 74 1020.2
20260506222707 46 180 0.0 0.0 0.00 0.10 0.00 74 1020.2
20260506222607 46 180 0.0 0.0 0.00 0.10 0.00 74 1020.2
20260506222507 46 180 2.0 0.0 0.00 0.10 0.00 74 1020.4
20260506222407 46 180 0.0 0.0 0.00 0.10 0.00 74 1020.2
20260506222307 46 180 0.0 0.0 0.00 0.10 0.00 74 1020.2
20260506222208 46 180 0.0 0.0 0.00 0.10 0.00 74 1020.2
20260506222107 46 180 0.0 0.0 0.00 0.10 0.00 74 1020.2
20260506222007 46 180 0.0 0.0 0.00 0.10 0.00 74 1020.2
20260506221907 46 180 0.0 0.0 0.00 0.10 0.00 74 1020.2
20260506221807 46 180 0.0 0.0 0.00 0.10 0.00 74 1020.2
20260506221707 46 180 0.0 0.0 0.00 0.10 0.00 74 1020.2
20260506221607 46 180 0.0 0.0 0.00 0.10 0.00 74 1020.2
20260506221507 46 180 0.0 0.0 0.00 0.10 0.00 74 1020.0
20260506221407 46 180 0.0 0.0 0.00 0.10 0.00 74 1020.0
20260506221307 46 180 0.0 0.0 0.00 0.10 0.00 74 1020.0
20260506221200 46 180 0.0 0.0 0.00 0.10 0.00 74 1020.0
20260506221107 46 180 0.0 0.0 0.00 0.10 0.00 74 1020.2
20260506221007 46 180 0.0 0.0 0.00 0.10 0.00 74 1020.2
20260506220907 46 180 0.0 0.0 0.00 0.10 0.00 74 1020.2
20260506220807 46 180 0.0 0.0 0.00 0.10 0.00 74 1020.0
20260506220707 46 180 0.0 0.0 0.00 0.10 0.00 74 1020.0
20260506220607 47 180 0.0 0.0 0.00 0.10 0.00 74 1020.0
20260506220507 47 180 0.0 0.0 0.00 0.10 0.00 74 1020.0
20260506220407 47 180 0.0 0.0 0.00 0.10 0.00 74 1020.2
20260506220308 47 180 0.0 0.0 0.00 0.10 0.00 74 1020.0
20260506220207 47 180 0.0 0.0 0.00 0.10 0.00 74 1020.0
20260506220107 47 180 0.0 0.0 0.00 0.10 0.00 74 1020.0
20260506220007 47 180 0.0 0.0 0.00 0.10 0.00 74 1020.0
20260506215907 47 180 0.0 0.0 0.00 0.10 0.00 74 1020.0
20260506215807 47 180 0.0 0.0 0.00 0.10 0.00 74 1020.0
20260506215707 47 180 0.0 0.0 0.00 0.10 0.00 74 1020.0
20260506215607 47 180 0.0 0.0 0.00 0.10 0.00 74 1020.0
20260506215507 47 180 0.0 0.0 0.00 0.10 0.00 74 1020.0
20260506215407 47 180 0.0 0.0 0.00 0.10 0.00 74 1020.0
20260506215307 47 180 0.0 0.0 0.00 0.10 0.00 74 1020.0
20260506215207 47 180 0.0 0.0 0.00 0.10 0.00 74 1020.0
20260506215107 48 180 0.0 0.0 0.00 0.10 0.00 74 1020.0
20260506215007 48 180 0.0 0.0 0.00 0.10 0.00 74 1020.0
20260506214907 48 180 0.0 0.0 0.00 0.10 0.00 74 1020.0
20260506214807 48 180 0.0 0.0 0.00 0.10 0.00 74 1020.0
20260506214707 48 180 0.0 0.0 0.00 0.10 0.00 74 1020.0
20260506214607 48 180 0.0 0.0 0.00 0.10 0.00 74 1020.0
20260506214507 48 180 0.0 0.0 0.00 0.10 0.00 74 1020.0
20260506214407 48 180 0.0 0.0 0.00 0.10 0.00 74 1020.0
20260506214307 48 180 0.0 0.0 0.00 0.10 0.00 73 1019.9
20260506214207 48 180 0.0 0.0 0.00 0.10 0.00 73 1020.0
20260506214107 48 180 0.0 0.0 0.00 0.10 0.00 73 1020.0
20260506214007 48 180 0.0 0.0 0.00 0.10 0.00 73 1020.0
20260506213907 48 180 0.0 0.0 0.00 0.10 0.00 73 1020.0
20260506213807 48 180 0.0 0.0 0.00 0.10 0.00 73 1020.0
20260506213707 48 180 0.0 0.0 0.00 0.10 0.00 73 1020.0
20260506213607 48 180 0.0 0.0 0.00 0.10 0.00 73 1020.0
20260506213507 48 180 0.0 0.0 0.00 0.10 0.00 73 1020.0
20260506213407 48 180 0.0 0.0 0.00 0.10 0.00 73 1020.0
20260506213307 48 180 0.0 0.0 0.00 0.10 0.00 73 1020.0
20260506213207 48 180 0.0 0.0 0.00 0.10 0.00 73 1020.0
20260506213107 48 180 0.0 0.0 0.00 0.10 0.00 73 1020.0
20260506213007 48 180 0.0 0.0 0.00 0.10 0.00 73 1020.0
20260506212907 48 180 0.0 0.0 0.00 0.10 0.00 73 1020.0
20260506212807 48 180 0.0 0.0 0.00 0.10 0.00 73 1020.0
20260506212707 48 180 0.0 0.0 0.00 0.10 0.00 73 1020.0
20260506212607 48 180 0.0 0.0 0.00 0.10 0.00 73 1020.0
20260506212507 48 180 0.0 0.0 0.00 0.10 0.00 73 1019.9
20260506212407 48 180 0.0 0.0 0.00 0.10 0.00 73 1020.0
20260506212307 48 180 0.0 0.0 0.00 0.10 0.00 73 1020.0
20260506212207 48 180 0.0 0.0 0.00 0.10 0.00 73 1020.0
20260506212107 48 180 0.0 0.0 0.00 0.10 0.00 73 1020.0
20260506212007 48 180 0.0 0.0 0.00 0.10 0.00 73 1020.0
20260506211907 48 180 0.0 0.0 0.00 0.10 0.00 73 1020.0
20260506211807 48 180 0.0 0.0 0.00 0.10 0.00 73 1020.0
20260506211707 48 180 0.0 0.0 0.00 0.10 0.00 73 1020.0
20260506211607 48 180 0.0 0.0 0.00 0.10 0.00 73 1020.0
20260506211507 48 157 0.0 0.0 0.00 0.10 0.00 73 1019.9
20260506211407 48 157 0.0 0.0 0.00 0.10 0.00 73 1020.0
20260506211307 48 180 0.0 0.0 0.00 0.10 0.00 73 1020.0
20260506211207 48 180 0.0 0.0 0.00 0.10 0.00 73 1020.0
20260506211107 48 180 0.0 0.0 0.00 0.10 0.00 73 1020.0
20260506211007 48 180 0.0 0.0 0.00 0.10 0.00 73 1020.0
20260506210907 48 180 0.0 0.0 0.00 0.10 0.00 73 1020.0
20260506210807 48 180 0.0 0.0 0.00 0.10 0.00 73 1020.0
20260506210707 48 180 0.0 0.0 0.00 0.10 0.00 73 1019.9
20260506210607 48 180 0.0 0.0 0.00 0.10 0.00 73 1020.0
20260506210507 49 180 0.0 0.0 0.00 0.10 0.00 73 1020.0
20260506210407 49 180 0.0 0.0 0.00 0.10 0.00 73 1020.0
20260506210307 49 180 0.0 0.0 0.00 0.10 0.00 73 1020.0
20260506210207 49 180 0.0 0.0 0.00 0.10 0.00 73 1020.0
20260506210107 49 180 0.0 0.0 0.00 0.10 0.00 73 1020.2
20260506210007 49 180 0.0 0.0 0.00 0.10 0.00 73 1020.0
20260506205907 49 180 0.0 0.0 0.00 0.10 0.00 73 1020.0
20260506205807 49 180 0.0 0.0 0.00 0.10 0.00 73 1020.0
20260506205700 49 180 0.0 0.0 0.00 0.10 0.00 73 1020.0
20260506205607 49 157 2.0 0.0 0.00 0.10 0.00 73 1020.2
20260506205507 49 180 0.0 0.0 0.00 0.10 0.00 73 1020.0
20260506205407 49 202 0.0 0.0 0.00 0.10 0.00 72 1020.0
20260506205307 49 202 0.0 0.0 0.00 0.10 0.00 72 1020.0
20260506205207 49 180 0.0 0.0 0.00 0.10 0.00 72 1020.0
20260506205107 49 202 0.0 0.0 0.00 0.10 0.00 72 1020.0
20260506205007 49 202 0.0 0.0 0.00 0.10 0.00 72 1020.0
20260506204907 49 180 0.0 0.0 0.00 0.10 0.00 72 1020.0
20260506204807 49 180 0.0 0.0 0.00 0.10 0.00 72 1020.0
20260506204707 49 202 0.0 0.0 0.00 0.10 0.00 72 1020.0
20260506204607 49 202 5.0 0.0 0.00 0.10 0.00 72 1020.0
20260506204507 50 202 3.0 0.0 0.00 0.10 0.00 72 1020.0
20260506204407 50 202 9.0 0.0 0.00 0.10 0.00 72 1020.0
20260506204307 50 202 9.0 0.0 0.00 0.10 0.00 72 1020.0
20260506204207 50 202 0.0 0.0 0.00 0.10 0.00 72 1020.0
20260506204107 50 180 10.0 0.0 0.00 0.10 0.00 72 1020.0
20260506204007 50 202 0.0 0.0 0.00 0.10 0.00 72 1020.0
20260506203907 50 202 9.0 0.0 0.00 0.10 0.00 72 1020.2
20260506203807 50 180 0.0 0.0 0.00 0.10 0.00 72 1020.2
20260506203707 50 202 6.0 0.0 0.00 0.10 0.00 72 1020.0
20260506203607 50 202 0.0 0.0 0.00 0.10 0.00 72 1020.2
20260506203507 50 180 0.0 0.0 0.00 0.10 0.00 72 1020.2
20260506203407 50 202 0.0 0.0 0.00 0.10 0.00 72 1020.0
20260506203307 50 202 5.0 0.0 0.00 0.10 0.00 72 1020.0
20260506203207 50 180 0.0 0.0 0.00 0.10 0.00 72 1020.0
20260506203108 50 202 0.0 0.0 0.00 0.10 0.00 72 1020.0
20260506203007 50 202 2.0 0.0 0.00 0.10 0.00 72 1020.0
20260506202907 50 180 0.0 0.0 0.00 0.10 0.00 72 1020.0
20260506202807 50 180 0.0 0.0 0.00 0.10 0.00 72 1020.0
20260506202707 50 180 0.0 0.0 0.00 0.10 0.00 72 1020.0
20260506202607 50 180 0.0 0.0 0.00 0.10 0.00 72 1020.0
20260506202507 50 180 0.0 0.0 0.00 0.10 0.00 72 1020.0
20260506202407 50 180 0.0 0.0 0.00 0.10 0.00 72 1020.0
20260506202307 50 180 0.0 0.0 0.00 0.10 0.00 72 1020.0
20260506202207 50 180 0.0 0.0 0.00 0.10 0.00 72 1020.0
20260506202107 50 180 0.0 0.0 0.00 0.10 0.00 72 1020.0
20260506202007 50 180 0.0 0.0 0.00 0.10 0.00 72 1020.0
20260506201907 50 180 0.0 0.0 0.00 0.10 0.00 72 1020.0
20260506201807 50 180 0.0 0.0 0.00 0.10 0.00 72 1020.0
20260506201707 50 180 0.0 0.0 0.00 0.10 0.00 72 1019.9
20260506201607 50 180 0.0 0.0 0.00 0.10 0.00 72 1019.9
20260506201507 50 180 0.0 0.0 0.00 0.10 0.00 72 1019.9
20260506201407 50 180 0.0 0.0 0.00 0.10 0.00 72 1020.0
20260506201307 50 180 0.0 0.0 0.00 0.10 0.00 72 1019.9
20260506201207 50 180 0.0 0.0 0.00 0.10 0.00 72 1019.9
20260506201107 50 180 0.0 0.0 0.00 0.10 0.00 72 1019.9
20260506201007 50 180 0.0 0.0 0.00 0.10 0.00 72 1020.0
20260506200907 50 180 0.0 0.0 0.00 0.10 0.00 72 1020.0
20260506200807 50 157 0.0 0.0 0.00 0.10 0.00 72 1019.9
20260506200707 50 157 0.0 0.0 0.00 0.10 0.00 72 1020.0
20260506200607 50 157 0.0 0.0 0.00 0.10 0.00 72 1020.0
20260506200507 50 157 0.0 0.0 0.00 0.10 0.00 72 1020.0
20260506200407 50 157 0.0 0.0 0.00 0.10 0.00 72 1020.0
20260506200307 50 157 0.0 0.0 0.00 0.10 0.00 72 1020.0
20260506200207 50 157 0.0 0.0 0.00 0.10 0.00 72 1019.9
20260506200107 50 157 0.0 0.0 0.00 0.10 0.00 72 1019.9
20260506200007 50 157 0.0 0.0 0.00 0.10 0.00 72 1019.9
20260506195907 50 157 0.0 0.0 0.00 0.10 0.00 72 1020.0
20260506195807 50 157 0.0 0.0 0.00 0.10 0.00 72 1019.9
20260506195707 50 157 0.0 0.0 0.00 0.10 0.00 72 1019.7
20260506195607 50 157 0.0 0.0 0.00 0.10 0.00 72 1019.7
20260506195507 50 157 0.0 0.0 0.00 0.10 0.00 72 1019.9
20260506195407 50 157 0.0 0.0 0.00 0.10 0.00 72 1020.0
20260506195307 50 157 0.0 0.0 0.00 0.10 0.00 72 1019.7
20260506195207 50 157 0.0 0.0 0.00 0.10 0.00 72 1019.9
20260506195107 50 157 0.0 0.0 0.00 0.10 0.00 72 1019.9
20260506195007 50 157 0.0 0.0 0.00 0.10 0.00 72 1019.9
20260506194907 50 157 0.0 0.0 0.00 0.10 0.00 72 1019.7
20260506194807 50 157 0.0 0.0 0.00 0.10 0.00 72 1019.7
20260506194707 50 157 0.0 0.0 0.00 0.10 0.00 72 1019.7
20260506194607 50 157 0.0 0.0 0.00 0.10 0.00 72 1019.7
20260506194507 50 157 0.0 0.0 0.00 0.10 0.00 72 1019.7
20260506194407 50 157 0.0 0.0 0.00 0.10 0.00 71 1019.7
20260506194307 50 157 0.0 0.0 0.00 0.10 0.00 71 1019.7
20260506194207 50 157 0.0 0.0 0.00 0.10 0.00 71 1019.7
20260506194107 50 157 0.0 0.0 0.00 0.10 0.00 71 1019.7
20260506194007 50 157 0.0 0.0 0.00 0.10 0.00 71 1019.7
20260506193907 50 180 0.0 0.0 0.00 0.10 0.00 71 1019.7
20260506193807 50 157 0.0 0.0 0.00 0.10 0.00 71 1019.7
20260506193707 50 180 0.0 0.0 0.00 0.10 0.00 71 1019.7
20260506193607 50 157 0.0 0.0 0.00 0.10 0.00 71 1019.7
20260506193507 50 157 0.0 0.0 0.00 0.10 0.00 71 1019.7
20260506193407 50 157 0.0 0.0 0.00 0.10 0.00 71 1019.5
20260506193307 50 157 0.0 0.0 0.00 0.10 0.00 71 1019.5
20260506193207 50 157 0.0 0.0 0.00 0.10 0.00 71 1019.5
20260506193107 50 157 0.0 0.0 0.00 0.10 0.00 71 1019.7
20260506193007 50 157 0.0 0.0 0.00 0.10 0.00 71 1019.5
20260506192907 50 157 0.0 0.0 0.00 0.10 0.00 71 1019.5
20260506192807 50 157 0.0 0.0 0.00 0.10 0.00 71 1019.5
20260506192707 50 157 0.0 0.0 0.00 0.10 0.00 71 1019.5
20260506192607 50 157 0.0 0.0 0.00 0.10 0.00 71 1019.5
20260506192507 50 157 0.0 0.0 0.00 0.10 0.00 71 1019.5
20260506192407 50 180 0.0 0.0 0.00 0.10 0.00 71 1019.5
20260506192307 50 180 0.0 0.0 0.00 0.10 0.00 71 1019.5
20260506192207 50 157 0.0 0.0 0.00 0.10 0.00 71 1019.5
20260506192107 51 157 0.0 0.0 0.00 0.10 0.00 71 1019.5
20260506192007 51 180 0.0 0.0 0.00 0.10 0.00 71 1019.5
20260506191907 51 180 0.0 0.0 0.00 0.10 0.00 71 1019.5
20260506191807 51 180 0.0 0.0 0.00 0.10 0.00 71 1019.5
20260506191707 51 180 0.0 0.0 0.00 0.10 0.00 71 1019.5
20260506191607 51 180 0.0 0.0 0.00 0.10 0.00 71 1019.4
20260506191507 51 180 0.0 0.0 0.00 0.10 0.00 71 1019.4
20260506191407 51 180 0.0 0.0 0.00 0.10 0.00 71 1019.2
20260506191307 51 180 0.0 0.0 0.00 0.10 0.00 71 1019.4
20260506191207 51 180 0.0 0.0 0.00 0.10 0.00 70 1019.4
20260506191107 51 180 0.0 0.0 0.00 0.10 0.00 70 1019.4
20260506191007 51 180 0.0 0.0 0.00 0.10 0.00 70 1019.4
20260506190907 51 180 0.0 0.0 0.00 0.10 0.00 70 1019.2
20260506190807 51 180 0.0 0.0 0.00 0.10 0.00 70 1019.2
20260506190707 51 180 0.0 0.0 0.00 0.10 0.00 70 1019.2
20260506190607 51 180 0.0 0.0 0.00 0.10 0.00 70 1019.2
20260506190507 51 180 0.0 0.0 0.00 0.10 0.00 70 1019.0
20260506190407 51 180 0.0 0.0 0.00 0.10 0.00 70 1019.2
20260506190307 51 180 0.0 0.0 0.00 0.10 0.00 70 1019.2
20260506190207 51 180 5.0 0.0 0.00 0.10 0.00 70 1019.2
20260506190107 51 180 0.0 0.0 0.00 0.10 0.00 70 1019.0
20260506190007 51 180 0.0 0.0 0.00 0.10 0.00 70 1019.0
20260506185907 51 202 0.0 0.0 0.00 0.10 0.00 70 1019.0
20260506185807 51 202 1.0 0.0 0.00 0.10 0.00 70 1019.2
20260506185707 51 180 0.0 0.0 0.00 0.10 0.00 70 1019.0
20260506185607 51 180 0.0 0.0 0.00 0.10 0.00 70 1019.0
20260506185507 51 202 0.0 0.0 0.00 0.10 0.00 70 1019.0
20260506185407 51 202 0.0 0.0 0.00 0.10 0.00 70 1019.0
20260506185307 51 202 7.0 0.0 0.00 0.10 0.00 70 1019.0
20260506185207 51 202 0.0 0.0 0.00 0.10 0.00 70 1019.0
20260506185107 51 202 5.0 0.0 0.00 0.10 0.00 70 1019.0
20260506185007 51 202 2.0 0.0 0.00 0.10 0.00 70 1019.0
20260506184907 51 202 0.0 0.0 0.00 0.10 0.00 70 1019.0
20260506184807 51 202 1.0 0.0 0.00 0.10 0.00 70 1019.0
20260506184707 51 202 0.0 0.0 0.00 0.10 0.00 70 1019.0
20260506184607 51 180 0.0 0.0 0.00 0.10 0.00 70 1019.0
20260506184507 52 180 0.0 0.0 0.00 0.10 0.00 70 1019.0
20260506184407 52 180 0.0 0.0 0.00 0.10 0.00 70 1019.0
20260506184307 52 202 0.0 0.0 0.00 0.10 0.00 70 1018.9
20260506184207 52 202 0.0 0.0 0.00 0.10 0.00 70 1018.9
20260506184107 52 180 0.0 0.0 0.00 0.10 0.00 70 1019.0
20260506184007 52 180 0.0 0.0 0.00 0.10 0.00 70 1019.0
20260506183907 52 180 2.0 0.0 0.00 0.10 0.00 70 1018.9
20260506183807 52 180 0.0 0.0 0.00 0.10 0.00 70 1018.9
20260506183707 52 180 0.0 0.0 0.00 0.10 0.00 70 1018.9
20260506183607 52 202 0.0 0.0 0.00 0.10 0.00 69 1018.9
20260506183507 52 202 0.0 0.0 0.00 0.10 0.00 69 1018.7
20260506183407 52 202 0.0 0.0 0.00 0.10 0.00 69 1018.9
20260506183307 52 202 3.0 0.0 0.00 0.10 0.00 69 1018.7
20260506183207 52 202 4.0 0.0 0.00 0.10 0.00 69 1018.9
20260506183107 52 180 4.0 0.0 0.00 0.10 0.00 69 1018.9
20260506183007 52 180 0.0 0.0 0.00 0.10 0.00 69 1018.7
20260506182907 52 180 0.0 0.0 0.00 0.10 0.00 69 1018.7
20260506182807 52 180 0.0 0.0 0.00 0.10 0.00 69 1018.7
20260506182707 52 180 0.0 0.0 0.00 0.10 0.00 69 1018.7
20260506182607 52 180 4.0 0.0 0.00 0.10 0.00 69 1018.9
20260506182507 52 180 0.0 0.0 0.00 0.10 0.00 69 1018.7
20260506182407 52 180 0.0 0.0 0.00 0.10 0.00 69 1018.9
20260506182307 52 180 0.0 0.0 0.00 0.10 0.00 69 1018.9
20260506182207 53 180 0.0 0.0 0.00 0.10 0.00 69 1018.7
20260506182107 53 180 0.0 0.0 0.00 0.10 0.00 69 1018.9
20260506182007 53 180 0.0 0.0 0.00 0.10 0.00 69 1018.7
20260506181907 53 180 0.0 0.0 0.00 0.10 0.00 69 1018.9
20260506181807 53 180 0.0 0.0 0.00 0.10 0.00 69 1018.7
20260506181707 53 180 0.0 0.0 0.00 0.10 0.00 69 1018.9
20260506181607 53 180 0.0 0.0 0.00 0.10 0.00 69 1018.7
20260506181507 53 180 0.0 0.0 0.00 0.10 0.00 69 1018.9
20260506181407 53 180 0.0 0.0 0.00 0.10 0.00 69 1018.9
20260506181307 53 180 0.0 0.0 0.00 0.10 0.00 68 1018.7
20260506181207 53 180 2.0 0.0 0.00 0.10 0.00 68 1018.7
20260506181107 53 180 0.0 0.0 0.00 0.10 0.00 68 1018.7
20260506181007 53 180 0.0 0.0 0.00 0.10 0.00 68 1018.9
20260506180907 53 180 0.0 0.0 0.00 0.10 0.00 68 1018.7
20260506180807 53 180 0.0 0.0 0.00 0.10 0.00 68 1018.7
20260506180707 53 180 0.0 0.0 0.00 0.10 0.00 68 1018.7
20260506180607 53 180 0.0 0.0 0.00 0.10 0.00 68 1018.7
20260506180507 53 180 0.0 0.0 0.00 0.10 0.00 68 1018.7
20260506180407 53 180 0.0 0.0 0.00 0.10 0.00 68 1018.7
20260506180307 53 180 0.0 0.0 0.00 0.10 0.00 68 1018.5
20260506180207 54 180 0.0 0.0 0.00 0.10 0.00 68 1018.5
20260506180107 54 180 7.0 0.0 0.00 0.10 0.00 68 1018.7
20260506180007 54 180 0.0 0.0 0.00 0.10 0.00 68 1018.5
20260506175907 54 180 0.0 0.0 0.00 0.10 0.00 68 1018.5
20260506175807 54 180 0.0 0.0 0.00 0.10 0.00 68 1018.5
20260506175707 54 180 0.0 0.0 0.00 0.10 0.00 68 1018.5
20260506175607 54 180 0.0 0.0 0.00 0.10 0.00 68 1018.5
20260506175507 54 180 0.0 0.0 0.00 0.10 0.00 68 1018.5
20260506175407 54 180 0.0 0.0 0.00 0.10 0.00 68 1018.5
20260506175307 54 202 0.0 0.0 0.00 0.10 0.00 68 1018.5
20260506175207 54 202 0.0 0.0 0.00 0.10 0.00 68 1018.5
20260506175107 54 202 9.0 0.0 0.00 0.10 0.00 68 1018.5
20260506175007 54 202 4.0 0.0 0.00 0.10 0.00 68 1018.4
20260506174907 54 202 3.0 0.0 0.00 0.10 0.00 68 1018.4
20260506174807 54 202 0.0 0.0 0.00 0.10 0.00 68 1018.4
20260506174707 54 202 2.0 0.0 0.00 0.10 0.00 68 1018.5
20260506174607 54 202 0.0 0.0 0.00 0.10 0.00 68 1018.5
20260506174507 54 180 2.0 0.0 0.00 0.10 0.00 68 1018.7
20260506174407 54 202 6.0 0.0 0.00 0.10 0.00 68 1018.5
20260506174307 54 202 0.0 0.0 0.00 0.10 0.00 68 1018.5
20260506174207 54 202 0.0 0.0 0.00 0.10 0.00 68 1018.5
20260506174107 54 157 7.0 0.0 0.00 0.10 0.00 68 1018.5
20260506174007 54 202 0.0 0.0 0.00 0.10 0.00 68 1018.5
20260506173907 55 202 5.0 0.0 0.00 0.10 0.00 68 1018.5
20260506173807 55 180 2.0 0.0 0.00 0.10 0.00 68 1018.5
20260506173707 55 157 3.0 0.0 0.00 0.10 0.00 68 1018.5
20260506173607 55 180 6.0 0.0 0.00 0.10 0.00 68 1018.5
20260506173507 55 180 0.0 0.0 0.00 0.10 0.00 67 1018.5
20260506173407 55 180 5.0 0.0 0.00 0.10 0.00 67 1018.5
20260506173307 55 157 9.0 0.0 0.00 0.10 0.00 67 1018.5
20260506173207 55 180 8.0 0.0 0.00 0.10 0.00 67 1018.5
20260506173107 55 202 10.0 0.0 0.00 0.10 0.00 67 1018.4
20260506173007 55 180 6.0 0.0 0.00 0.10 0.00 67 1018.4
20260506172907 55 180 0.0 0.0 0.00 0.10 0.00 67 1018.4
20260506172807 55 180 9.0 0.0 0.00 0.10 0.00 67 1018.4
20260506172707 55 202 9.0 0.0 0.00 0.10 0.00 67 1018.2
20260506172607 55 180 9.0 0.0 0.00 0.10 0.00 67 1018.4
20260506172507 55 180 4.0 0.0 0.00 0.10 0.00 67 1018.2
20260506172407 55 157 2.0 0.0 0.00 0.10 0.00 67 1018.2
20260506172307 55 180 4.0 0.0 0.00 0.10 0.00 67 1018.2
20260506172207 55 180 0.0 0.0 0.00 0.10 0.00 67 1018.2
20260506172107 55 202 4.0 0.0 0.00 0.10 0.00 67 1018.2
20260506172007 55 180 5.0 0.0 0.00 0.10 0.00 67 1018.2
20260506171907 55 180 3.0 0.0 0.00 0.10 0.00 67 1018.2
20260506171807 55 202 11.0 0.0 0.00 0.10 0.00 67 1018.2
20260506171707 55 180 2.0 0.0 0.00 0.10 0.00 67 1018.2
20260506171607 55 157 8.0 0.0 0.00 0.10 0.00 67 1018.2
20260506171507 55 180 7.0 0.0 0.00 0.10 0.00 67 1018.2
20260506171407 55 202 10.0 0.0 0.00 0.10 0.00 67 1018.2
20260506171307 56 202 0.0 0.0 0.00 0.10 0.00 67 1018.2
20260506171207 56 180 183.0 0.0 0.00 0.10 0.00 67 1018.0
20260506171107 56 202 8.0 0.0 0.00 0.10 0.00 66 1018.0
20260506171007 56 180 1.0 0.0 0.00 0.10 0.00 66 1018.0
20260506170907 56 180 2.0 0.0 0.00 0.10 0.00 66 1018.0
20260506170807 56 180 5.0 0.0 0.00 0.10 0.00 66 1018.0
20260506170707 56 202 3.0 0.0 0.00 0.10 0.00 67 1018.0
20260506170607 56 180 3.0 0.0 0.00 0.10 0.00 67 1018.0
20260506170507 56 180 1.0 0.0 0.00 0.10 0.00 67 1017.9
20260506170407 56 180 0.0 0.0 0.00 0.10 0.00 67 1017.9
20260506170307 56 180 0.0 0.0 0.00 0.10 0.00 67 1017.7
20260506170207 56 180 4.0 0.0 0.00 0.10 0.00 67 1017.9
20260506170107 56 180 0.0 0.0 0.00 0.10 0.00 67 1017.7
20260506170007 56 225 12.0 0.0 0.00 0.10 0.00 67 1017.7
20260506165907 57 180 3.0 0.0 0.00 0.10 0.00 67 1017.7
20260506165807 57 180 0.0 0.0 0.00 0.10 0.00 67 1018.0
20260506165707 57 180 0.0 0.0 0.00 0.10 0.00 67 1018.0
20260506165607 57 202 9.0 0.0 0.00 0.10 0.00 67 1018.0
20260506165507 57 180 1.0 0.0 0.00 0.10 0.00 67 1018.0
20260506165407 57 180 2.0 0.0 0.00 0.10 0.00 67 1017.9
20260506165307 57 180 0.0 0.0 0.00 0.10 0.00 67 1018.0
20260506165207 57 202 2.0 0.0 0.00 0.10 0.00 67 1017.9
20260506165107 57 180 7.0 0.0 0.00 0.10 0.00 67 1017.9
20260506165007 57 202 2.0 0.0 0.00 0.10 0.00 67 1017.7
20260506164907 57 180 0.0 0.0 0.00 0.10 0.00 67 1017.7
20260506164807 57 180 1.0 0.0 0.00 0.10 0.00 67 1017.7
20260506164707 57 180 9.0 0.0 0.00 0.10 0.00 67 1017.9
20260506164607 57 202 0.0 0.0 0.00 0.10 0.00 67 1017.9
20260506164507 57 202 0.0 0.0 0.00 0.10 0.00 67 1017.7
20260506164407 57 202 0.0 0.0 0.00 0.10 0.00 67 1017.5
20260506164307 57 225 4.0 0.0 0.00 0.10 0.00 67 1017.5
20260506164207 57 202 0.0 0.0 0.00 0.10 0.00 67 1017.5
20260506164107 57 202 13.0 0.0 0.00 0.10 0.00 67 1017.5
20260506164007 57 180 0.0 0.0 0.00 0.10 0.00 67 1017.5
20260506163907 57 180 4.0 0.0 0.00 0.10 0.00 67 1017.7
20260506163807 57 180 2.0 0.0 0.00 0.10 0.00 67 1017.7
20260506163707 57 225 0.0 0.0 0.00 0.10 0.00 67 1017.5
20260506163607 57 202 4.0 0.0 0.00 0.10 0.00 67 1017.5
20260506163507 57 202 0.0 0.0 0.00 0.10 0.00 67 1017.5
20260506163407 58 202 0.0 0.0 0.00 0.10 0.00 67 1017.5
20260506163307 58 202 5.0 0.0 0.00 0.10 0.00 67 1017.5
20260506163207 58 225 7.0 0.0 0.00 0.10 0.00 67 1017.5
20260506163107 58 202 2.0 0.0 0.00 0.10 0.00 67 1017.7
20260506163007 58 202 0.0 0.0 0.00 0.10 0.00 67 1017.5
20260506162907 58 202 0.0 0.0 0.00 0.10 0.00 67 1017.7
20260506162807 58 202 0.0 0.0 0.00 0.10 0.00 67 1017.5
20260506162707 58 202 4.0 0.0 0.00 0.10 0.00 67 1017.5
20260506162607 58 225 4.0 0.0 0.00 0.10 0.00 67 1017.5
20260506162507 58 225 2.0 0.0 0.00 0.10 0.00 67 1017.7
20260506162407 58 225 4.0 0.0 0.00 0.10 0.00 67 1017.5
20260506162307 58 202 0.0 0.0 0.00 0.10 0.00 67 1017.7
20260506162207 58 180 8.0 0.0 0.00 0.10 0.00 67 1017.5
20260506162107 58 180 5.0 0.0 0.00 0.10 0.00 67 1017.5
20260506162007 58 225 3.0 0.0 0.00 0.10 0.00 67 1017.5
20260506161907 58 225 10.0 0.0 0.00 0.10 0.00 67 1017.5
20260506161807 58 225 0.0 0.0 0.00 0.10 0.00 67 1017.5
20260506161707 58 202 0.0 0.0 0.00 0.10 0.00 67 1017.5
20260506161607 58 225 9.0 0.0 0.00 0.10 0.00 67 1017.7
20260506161507 58 180 5.0 0.0 0.00 0.10 0.00 67 1017.5
20260506161407 58 202 6.0 0.0 0.00 0.10 0.00 67 1017.7
20260506161307 58 225 0.0 0.0 0.00 0.10 0.00 67 1017.7
20260506161207 58 180 5.0 0.0 0.00 0.10 0.00 67 1017.7
20260506161107 58 180 13.0 0.0 0.00 0.10 0.00 67 1017.5
20260506161007 58 225 8.0 0.0 0.00 0.10 0.00 68 1017.5
20260506160907 58 247 7.0 0.0 0.00 0.10 0.00 68 1017.5
20260506160807 58 247 12.0 0.0 0.00 0.10 0.00 68 1017.7
20260506160707 58 225 9.0 0.0 0.00 0.10 0.00 68 1017.7
20260506160607 57 225 9.0 0.0 0.00 0.10 0.00 68 1017.7
20260506160507 57 202 6.0 0.0 0.00 0.10 0.00 68 1017.7
20260506160407 57 202 3.0 0.0 0.00 0.10 0.00 68 1017.7
20260506160307 57 225 12.0 0.0 0.00 0.10 0.00 68 1017.7
20260506160207 57 202 12.0 0.0 0.00 0.10 0.00 67 1017.7
20260506160107 57 202 3.0 0.0 0.00 0.10 0.00 67 1017.7
20260506160007 57 225 11.0 0.0 0.02 0.10 0.00 67 1017.7
20260506155907 57 225 0.0 0.0 0.02 0.10 0.00 67 1017.9
20260506155807 57 180 5.0 0.0 0.02 0.10 0.00 67 1017.9
20260506155707 57 180 0.0 0.0 0.02 0.10 0.00 67 1017.9
20260506155607 57 202 11.0 0.0 0.02 0.10 0.00 67 1017.9
20260506155507 57 202 9.0 0.0 0.02 0.10 0.00 67 1017.9
20260506155407 56 180 0.0 0.0 0.02 0.10 0.00 67 1017.9
20260506155307 56 225 5.0 0.0 0.02 0.10 0.00 67 1017.9
20260506155207 56 180 0.0 0.0 0.02 0.10 0.00 67 1018.0
20260506155107 56 180 0.0 0.0 0.02 0.10 0.00 67 1018.0
20260506155007 56 180 1.0 0.0 0.02 0.10 0.00 67 1018.0
20260506154907 56 180 2.0 0.0 0.02 0.10 0.00 67 1018.0
20260506154807 56 180 0.0 0.0 0.02 0.10 0.00 67 1018.0
20260506154707 56 180 0.0 0.0 0.02 0.10 0.00 67 1018.0
20260506154607 56 180 3.0 0.0 0.02 0.10 0.00 67 1018.0
20260506154507 56 157 0.0 0.0 0.02 0.10 0.00 67 1018.0
20260506154407 56 180 0.0 0.0 0.04 0.10 0.00 67 1017.9
20260506154307 56 180 3.0 0.0 0.04 0.10 0.00 67 1018.0
20260506154207 56 180 9.0 0.0 0.04 0.10 0.00 67 1018.0
20260506154107 56 157 7.0 0.0 0.04 0.10 0.00 67 1018.0
20260506154007 56 157 4.0 0.0 0.04 0.10 0.00 67 1018.0
20260506153907 55 180 13.0 0.0 0.04 0.10 0.00 67 1018.0
20260506153807 55 157 5.0 0.0 0.04 0.10 0.00 67 1018.0
20260506153707 55 157 3.0 0.0 0.04 0.10 0.00 67 1018.0
20260506153607 55 180 10.0 0.0 0.04 0.10 0.00 67 1018.0
20260506153507 55 157 3.0 0.0 0.04 0.10 0.00 67 1018.0
20260506153407 55 180 7.0 0.0 0.04 0.10 0.00 67 1018.0
20260506153307 55 135 6.0 0.0 0.04 0.10 0.00 67 1018.0
20260506153207 55 157 0.0 0.0 0.06 0.10 0.00 67 1018.0
20260506153107 55 157 0.0 0.0 0.06 0.10 0.00 67 1018.0
20260506153006 55 157 0.0 0.0 0.06 0.10 0.00 67 1018.0
20260506152907 55 157 0.0 0.0 0.06 0.10 0.00 67 1017.9